Observation data for Palo Duro Reservoir 1NW on 11/16/2019      Previous  Date       Current Mesonet Observations  Soil Data  Daily Summary Page  Observations in Plain Language
KPD4 160600Z 20012KT 07/M03 A3008 RMK A01 T00691026  RH  051%=      5-min Rain = 0
KPD4 160601Z 20011KT 07/M03 A3008 RMK A01 T00691027  RH  051%=      5-min Rain = 0
KPD4 160602Z 20012KT 07/M03 A3008 RMK A01 T00681027  RH  051%=      5-min Rain = 0
KPD4 160603Z 20010KT 07/M03 A3008 RMK A01 T00681026  RH  051%=      5-min Rain = 0
KPD4 160604Z 20011KT 07/M03 A3008 RMK A01 T00681027  RH  051%=      5-min Rain = 0
KPD4 160605Z 20012KT 07/M03 A3008 RMK A01 T00681027  RH  051%=      5-min Rain = 0
KPD4 160606Z 20011KT 07/M03 A3008 RMK A01 T00681027  RH  051%=      5-min Rain = 0
KPD4 160607Z 20012KT 07/M03 A3008 RMK A01 T00681027  RH  051%=      5-min Rain = 0
KPD4 160608Z 19010KT 07/M03 A3008 RMK A01 T00671027  RH  051%=      5-min Rain = 0
KPD4 160609Z 20010KT 07/M03 A3008 RMK A01 T00671027  RH  051%=      5-min Rain = 0
KPD4 160610Z 19011KT 07/M03 A3008 RMK A01 T00661027  RH  051%=      5-min Rain = 0
KPD4 160611Z 19011KT 07/M03 A3008 RMK A01 T00651027  RH  052%=      5-min Rain = 0
KPD4 160612Z 19011KT 07/M03 A3008 RMK A01 T00651027  RH  052%=      5-min Rain = 0
KPD4 160613Z 19011KT 07/M03 A3008 RMK A01 T00651027  RH  052%=      5-min Rain = 0
KPD4 160614Z 20012KT 07/M03 A3008 RMK A01 T00651026  RH  052%=      5-min Rain = 0
KPD4 160615Z 19011KT 07/M03 A3008 RMK A01 T00661026  RH  052%=      5-min Rain = 0
KPD4 160616Z 20011KT 07/M03 A3008 RMK A01 T00661027  RH  052%=      5-min Rain = 0
KPD4 160617Z 19011KT 07/M03 A3008 RMK A01 T00661026  RH  052%=      5-min Rain = 0
KPD4 160618Z 19011KT 07/M03 A3008 RMK A01 T00661027  RH  052%=      5-min Rain = 0
KPD4 160619Z 19011KT 07/M03 A3008 RMK A01 T00651027  RH  052%=      5-min Rain = 0
KPD4 160620Z 19011KT 07/M03 A3008 RMK A01 T00651027  RH  052%=      5-min Rain = 0
KPD4 160621Z 20011KT 07/M03 A3008 RMK A01 T00651026  RH  052%=      5-min Rain = 0
KPD4 160622Z 19012KT 07/M03 A3008 RMK A01 T00651027  RH  052%=      5-min Rain = 0
KPD4 160623Z 19011KT 07/M03 A3008 RMK A01 T00651027  RH  052%=      5-min Rain = 0
KPD4 160624Z 19011KT 07/M03 A3008 RMK A01 T00651027  RH  052%=      5-min Rain = 0
KPD4 160625Z 19011KT 07/M03 A3008 RMK A01 T00651027  RH  052%=      5-min Rain = 0
KPD4 160626Z 19011KT 07/M03 A3008 RMK A01 T00651027  RH  052%=      5-min Rain = 0
KPD4 160627Z 19011KT 06/M03 A3008 RMK A01 T00641027  RH  052%=      5-min Rain = 0
KPD4 160628Z 19011KT 06/M03 A3008 RMK A01 T00631027  RH  052%=      5-min Rain = 0
KPD4 160629Z 19012KT 06/M03 A3008 RMK A01 T00631027  RH  053%=      5-min Rain = 0
KPD4 160630Z 19011KT 06/M03 A3008 RMK A01 T00641026  RH  052%=      5-min Rain = 0
KPD4 160631Z 19010KT 06/M03 A3008 RMK A01 T00641026  RH  052%=      5-min Rain = 0
KPD4 160632Z 19012KT 07/M03 A3008 RMK A01 T00651026  RH  052%=      5-min Rain = 0
KPD4 160633Z 19011KT 07/M03 A3008 RMK A01 T00651026  RH  052%=      5-min Rain = 0
KPD4 160634Z 19012KT 07/M03 A3008 RMK A01 T00651026  RH  052%=      5-min Rain = 0
KPD4 160635Z 19012KT 07/M03 A3008 RMK A01 T00661026  RH  052%=      5-min Rain = 0
KPD4 160636Z 20011KT 07/M03 A3008 RMK A01 T00661026  RH  052%=      5-min Rain = 0
KPD4 160637Z 19011KT 07/M03 A3008 RMK A01 T00661026  RH  052%=      5-min Rain = 0
KPD4 160638Z 19011KT 07/M03 A3008 RMK A01 T00651027  RH  052%=      5-min Rain = 0
KPD4 160639Z 19011KT 06/M03 A3008 RMK A01 T00641027  RH  052%=      5-min Rain = 0
KPD4 160640Z 19011KT 06/M03 A3008 RMK A01 T00641026  RH  052%=      5-min Rain = 0
KPD4 160641Z 19011KT 07/M03 A3008 RMK A01 T00651026  RH  052%=      5-min Rain = 0
KPD4 160642Z 19011KT 07/M03 A3008 RMK A01 T00651026  RH  052%=      5-min Rain = 0
KPD4 160643Z 19012KT 07/M03 A3008 RMK A01 T00651026  RH  052%=      5-min Rain = 0
KPD4 160644Z 19010KT 07/M03 A3008 RMK A01 T00651026  RH  052%=      5-min Rain = 0
KPD4 160645Z 19010KT 06/M03 A3008 RMK A01 T00641026  RH  052%=      5-min Rain = 0
KPD4 160646Z 19011KT 06/M03 A3008 RMK A01 T00641027  RH  052%=      5-min Rain = 0
KPD4 160647Z 19011KT 06/M03 A3008 RMK A01 T00631027  RH  053%=      5-min Rain = 0
KPD4 160648Z 20011KT 06/M03 A3008 RMK A01 T00631026  RH  053%=      5-min Rain = 0
KPD4 160649Z 19011KT 06/M03 A3008 RMK A01 T00631027  RH  053%=      5-min Rain = 0
KPD4 160650Z 19010KT 06/M03 A3008 RMK A01 T00631026  RH  053%=      5-min Rain = 0
KPD4 160651Z 19010KT 06/M03 A3008 RMK A01 T00631027  RH  053%=      5-min Rain = 0
KPD4 160652Z 19010KT 06/M03 A3008 RMK A01 T00621027  RH  053%=      5-min Rain = 0
KPD4 160653Z 19011KT 06/M03 A3008 RMK A01 T00621027  RH  053%=      5-min Rain = 0
KPD4 160654Z 19009KT 06/M03 A3008 RMK A01 T00611027  RH  053%=      5-min Rain = 0
KPD4 160655Z 20011KT 06/M03 A3008 RMK A01 T00611027  RH  053%=      5-min Rain = 0
KPD4 160656Z 19011KT 06/M03 A3008 RMK A01 T00611027  RH  053%=      5-min Rain = 0
KPD4 160657Z 19011KT 06/M03 A3008 RMK A01 T00611027  RH  053%=      5-min Rain = 0
KPD4 160658Z 19011KT 06/M03 A3008 RMK A01 T00611027  RH  053%=      5-min Rain = 0
KPD4 160659Z 19010KT 06/M03 A3008 RMK A01 T00601027  RH  054%=      5-min Rain = 0
KPD4 160700Z 19011KT 06/M03 A3007 RMK A01 T00591027  RH  054%=      5-min Rain = 0
KPD4 160701Z 20011KT 06/M03 A3007 RMK A01 T00591026  RH  054%=      5-min Rain = 0
KPD4 160702Z 19011KT 06/M03 A3007 RMK A01 T00591027  RH  054%=      5-min Rain = 0
KPD4 160703Z 19011KT 06/M03 A3007 RMK A01 T00591027  RH  054%=      5-min Rain = 0
KPD4 160704Z 20012KT 06/M03 A3007 RMK A01 T00591026  RH  054%=      5-min Rain = 0
KPD4 160705Z 20011KT 06/M03 A3007 RMK A01 T00591026  RH  054%=      5-min Rain = 0
KPD4 160706Z 19011KT 06/M03 A3007 RMK A01 T00591026  RH  054%=      5-min Rain = 0
KPD4 160707Z 20011KT 06/M03 A3007 RMK A01 T00581026  RH  055%=      5-min Rain = 0
KPD4 160708Z 20011KT 06/M03 A3007 RMK A01 T00581026  RH  055%=      5-min Rain = 0
KPD4 160709Z 20011KT 06/M03 A3007 RMK A01 T00571026  RH  055%=      5-min Rain = 0
KPD4 160710Z 20011KT 06/M03 A3007 RMK A01 T00571026  RH  055%=      5-min Rain = 0
KPD4 160711Z 20012KT 06/M03 A3007 RMK A01 T00571027  RH  055%=      5-min Rain = 0
KPD4 160712Z 20012KT 06/M03 A3007 RMK A01 T00561026  RH  055%=      5-min Rain = 0
KPD4 160713Z 20012KT 06/M03 A3007 RMK A01 T00571026  RH  055%=      5-min Rain = 0
KPD4 160714Z 20012KT 06/M03 A3007 RMK A01 T00571026  RH  055%=      5-min Rain = 0
KPD4 160715Z 20012KT 06/M03 A3007 RMK A01 T00571026  RH  055%=      5-min Rain = 0
KPD4 160716Z 20012KT 06/M03 A3007 RMK A01 T00571026  RH  055%=      5-min Rain = 0
KPD4 160717Z 19012KT 06/M03 A3007 RMK A01 T00571026  RH  055%=      5-min Rain = 0
KPD4 160718Z 20011KT 06/M03 A3007 RMK A01 T00571026  RH  055%=      5-min Rain = 0
KPD4 160719Z 19012KT 06/M03 A3007 RMK A01 T00571026  RH  055%=      5-min Rain = 0
KPD4 160720Z 19012KT 06/M03 A3007 RMK A01 T00561026  RH  055%=      5-min Rain = 0
KPD4 160721Z 20012KT 06/M03 A3007 RMK A01 T00561026  RH  056%=      5-min Rain = 0
KPD4 160722Z 19013KT 06/M03 A3006 RMK A01 T00571026  RH  055%=      5-min Rain = 0
KPD4 160723Z 19012KT 06/M03 A3006 RMK A01 T00581025  RH  055%=      5-min Rain = 0
KPD4 160724Z 19012KT 06/M03 A3006 RMK A01 T00571026  RH  055%=      5-min Rain = 0
KPD4 160725Z 19013KT 06/M03 A3006 RMK A01 T00581026  RH  055%=      5-min Rain = 0
KPD4 160726Z 19012KT 06/M03 A3006 RMK A01 T00581025  RH  055%=      5-min Rain = 0
KPD4 160727Z 19012KT 06/M03 A3006 RMK A01 T00581025  RH  055%=      5-min Rain = 0
KPD4 160728Z 19010KT 06/M03 A3006 RMK A01 T00581025  RH  055%=      5-min Rain = 0
KPD4 160729Z 19012KT 06/M03 A3006 RMK A01 T00571026  RH  055%=      5-min Rain = 0
KPD4 160730Z 19013KT 06/M03 A3006 RMK A01 T00571026  RH  055%=      5-min Rain = 0
KPD4 160731Z 19013KT 06/M03 A3006 RMK A01 T00571025  RH  055%=      5-min Rain = 0
KPD4 160732Z 20012KT 06/M03 A3006 RMK A01 T00581025  RH  055%=      5-min Rain = 0
KPD4 160733Z 19014KT 06/M03 A3006 RMK A01 T00581025  RH  055%=      5-min Rain = 0
KPD4 160734Z 20013KT 06/M03 A3006 RMK A01 T00581025  RH  055%=      5-min Rain = 0
KPD4 160735Z 19012KT 06/M03 A3006 RMK A01 T00581025  RH  055%=      5-min Rain = 0
KPD4 160736Z 19012KT 06/M03 A3006 RMK A01 T00581025  RH  055%=      5-min Rain = 0
KPD4 160737Z 19013KT 06/M03 A3006 RMK A01 T00591025  RH  055%=      5-min Rain = 0
KPD4 160738Z 19014KT 06/M02 A3006 RMK A01 T00601024  RH  055%=      5-min Rain = 0
KPD4 160739Z 20012KT 06/M02 A3006 RMK A01 T00631024  RH  054%=      5-min Rain = 0
KPD4 160740Z 20012G18KT 06/M03 A3006 RMK A01 T00631025  RH  053%=      5-min Rain = 0
KPD4 160741Z 20012KT 06/M03 A3006 RMK A01 T00621025  RH  054%=      5-min Rain = 0
KPD4 160742Z 20012KT 06/M03 A3006 RMK A01 T00611025  RH  054%=      5-min Rain = 0
KPD4 160743Z 20012KT 06/M03 A3006 RMK A01 T00601026  RH  054%=      5-min Rain = 0
KPD4 160744Z 20013KT 06/M03 A3006 RMK A01 T00591025  RH  055%=      5-min Rain = 0
KPD4 160745Z 20012KT 06/M03 A3006 RMK A01 T00591025  RH  055%=      5-min Rain = 0
KPD4 160746Z 20012KT 06/M03 A3006 RMK A01 T00601025  RH  054%=      5-min Rain = 0
KPD4 160747Z 20014KT 06/M03 A3006 RMK A01 T00601025  RH  054%=      5-min Rain = 0
KPD4 160748Z 20011KT 06/M02 A3006 RMK A01 T00621024  RH  054%=      5-min Rain = 0
KPD4 160749Z 20011KT 06/M02 A3006 RMK A01 T00631024  RH  054%=      5-min Rain = 0
KPD4 160750Z 20012KT 06/M03 A3006 RMK A01 T00621025  RH  054%=      5-min Rain = 0
KPD4 160751Z 20012KT 06/M03 A3006 RMK A01 T00611025  RH  054%=      5-min Rain = 0
KPD4 160752Z 20012KT 06/M03 A3006 RMK A01 T00611025  RH  054%=      5-min Rain = 0
KPD4 160753Z 20010KT 06/M03 A3006 RMK A01 T00611025  RH  054%=      5-min Rain = 0
KPD4 160754Z 20011KT 06/M03 A3006 RMK A01 T00601025  RH  054%=      5-min Rain = 0
KPD4 160755Z 20014KT 06/M03 A3006 RMK A01 T00591025  RH  055%=      5-min Rain = 0
KPD4 160756Z 20013KT 06/M02 A3006 RMK A01 T00611024  RH  055%=      5-min Rain = 0
KPD4 160757Z 20012KT 06/M02 A3006 RMK A01 T00621024  RH  054%=      5-min Rain = 0
KPD4 160758Z 20013KT 06/M02 A3006 RMK A01 T00621024  RH  054%=      5-min Rain = 0
KPD4 160759Z 20011KT 06/M02 A3006 RMK A01 T00621024  RH  054%=      5-min Rain = 0
KPD4 160800Z 19011KT 06/M02 A3006 RMK A01 T00621024  RH  054%=      5-min Rain = 0
KPD4 160801Z 20011KT 06/M03 A3006 RMK A01 T00611025  RH  054%=      5-min Rain = 0
KPD4 160802Z 20012KT 06/M02 A3006 RMK A01 T00611024  RH  055%=      5-min Rain = 0
KPD4 160803Z 19013KT 06/M02 A3006 RMK A01 T00611024  RH  055%=      5-min Rain = 0
KPD4 160804Z 19012KT 06/M02 A3006 RMK A01 T00611024  RH  054%=      5-min Rain = 0
KPD4 160805Z 19011KT 06/M02 A3006 RMK A01 T00611024  RH  054%=      5-min Rain = 0
KPD4 160806Z 19010KT 06/M02 A3006 RMK A01 T00611024  RH  055%=      5-min Rain = 0
KPD4 160807Z 20010KT 06/M02 A3006 RMK A01 T00611024  RH  055%=      5-min Rain = 0
KPD4 160808Z 19011KT 06/M02 A3006 RMK A01 T00601024  RH  055%=      5-min Rain = 0
KPD4 160809Z 19012KT 06/M02 A3006 RMK A01 T00601024  RH  055%=      5-min Rain = 0
KPD4 160810Z 19011KT 06/M02 A3006 RMK A01 T00601024  RH  055%=      5-min Rain = 0
KPD4 160811Z 19011KT 06/M02 A3006 RMK A01 T00601024  RH  055%=      5-min Rain = 0
KPD4 160812Z 19010KT 06/M02 A3006 RMK A01 T00591024  RH  055%=      5-min Rain = 0
KPD4 160813Z 19011KT 06/M03 A3006 RMK A01 T00581025  RH  055%=      5-min Rain = 0
KPD4 160814Z 19010KT 06/M02 A3006 RMK A01 T00581024  RH  055%=      5-min Rain = 0
KPD4 160815Z 19011KT 06/M02 A3006 RMK A01 T00581024  RH  055%=      5-min Rain = 0
KPD4 160816Z 19011KT 06/M02 A3006 RMK A01 T00581024  RH  056%=      5-min Rain = 0
KPD4 160817Z 19012KT 06/M02 A3006 RMK A01 T00571024  RH  056%=      5-min Rain = 0
KPD4 160818Z 19011KT 06/M02 A3006 RMK A01 T00581024  RH  056%=      5-min Rain = 0
KPD4 160819Z 19012KT 06/M02 A3006 RMK A01 T00571024  RH  056%=      5-min Rain = 0
KPD4 160820Z 19011KT 06/M02 A3006 RMK A01 T00581024  RH  056%=      5-min Rain = 0
KPD4 160821Z 19011KT 06/M02 A3006 RMK A01 T00581024  RH  056%=      5-min Rain = 0
KPD4 160822Z 19012KT 06/M02 A3006 RMK A01 T00571024  RH  056%=      5-min Rain = 0
KPD4 160823Z 19012KT 06/M02 A3006 RMK A01 T00571024  RH  056%=      5-min Rain = 0
KPD4 160824Z 19012KT 06/M02 A3006 RMK A01 T00571024  RH  056%=      5-min Rain = 0
KPD4 160825Z 19012KT 06/M02 A3006 RMK A01 T00561024  RH  056%=      5-min Rain = 0
KPD4 160826Z 19012KT 06/M02 A3006 RMK A01 T00561024  RH  056%=      5-min Rain = 0
KPD4 160827Z 19013KT 06/M02 A3006 RMK A01 T00571023  RH  056%=      5-min Rain = 0
KPD4 160828Z 19012KT 06/M02 A3006 RMK A01 T00571024  RH  056%=      5-min Rain = 0
KPD4 160829Z 19011KT 06/M02 A3006 RMK A01 T00571024  RH  056%=      5-min Rain = 0
KPD4 160830Z 19011KT 06/M02 A3006 RMK A01 T00561024  RH  056%=      5-min Rain = 0
KPD4 160831Z 19012KT 06/M02 A3006 RMK A01 T00551024  RH  057%=      5-min Rain = 0
KPD4 160832Z 19012KT 06/M02 A3006 RMK A01 T00551024  RH  057%=      5-min Rain = 0
KPD4 160833Z 19011KT 06/M02 A3006 RMK A01 T00551024  RH  057%=      5-min Rain = 0
KPD4 160834Z 19012KT 06/M02 A3006 RMK A01 T00551024  RH  057%=      5-min Rain = 0
KPD4 160835Z 19012KT 06/M02 A3006 RMK A01 T00551024  RH  057%=      5-min Rain = 0
KPD4 160836Z 19012KT 06/M02 A3006 RMK A01 T00561023  RH  057%=      5-min Rain = 0
KPD4 160837Z 19011KT 06/M02 A3006 RMK A01 T00561024  RH  057%=      5-min Rain = 0
KPD4 160838Z 19011KT 06/M02 A3006 RMK A01 T00551024  RH  057%=      5-min Rain = 0
KPD4 160839Z 19011KT 05/M02 A3006 RMK A01 T00541024  RH  057%=      5-min Rain = 0
KPD4 160840Z 19011KT 05/M02 A3006 RMK A01 T00541024  RH  057%=      5-min Rain = 0
KPD4 160841Z 19012KT 05/M02 A3006 RMK A01 T00531024  RH  057%=      5-min Rain = 0
KPD4 160842Z 19012KT 05/M02 A3005 RMK A01 T00531024  RH  057%=      5-min Rain = 0
KPD4 160843Z 19012KT 05/M02 A3005 RMK A01 T00531024  RH  058%=      5-min Rain = 0
KPD4 160844Z 19011KT 05/M02 A3005 RMK A01 T00531024  RH  058%=      5-min Rain = 0
KPD4 160845Z 19011KT 05/M02 A3006 RMK A01 T00531024  RH  057%=      5-min Rain = 0
KPD4 160846Z 19012KT 05/M02 A3006 RMK A01 T00531024  RH  057%=      5-min Rain = 0
KPD4 160847Z 19011KT 05/M02 A3006 RMK A01 T00531024  RH  058%=      5-min Rain = 0
KPD4 160848Z 19011KT 05/M02 A3005 RMK A01 T00531024  RH  058%=      5-min Rain = 0
KPD4 160849Z 19010KT 05/M02 A3005 RMK A01 T00531024  RH  058%=      5-min Rain = 0
KPD4 160850Z 19011KT 05/M03 A3006 RMK A01 T00531025  RH  058%=      5-min Rain = 0
KPD4 160851Z 19010KT 05/M02 A3006 RMK A01 T00521024  RH  058%=      5-min Rain = 0
KPD4 160852Z 19011KT 05/M03 A3006 RMK A01 T00521025  RH  058%=      5-min Rain = 0
KPD4 160853Z 20012KT 05/M02 A3005 RMK A01 T00521024  RH  058%=      5-min Rain = 0
KPD4 160854Z 19011KT 05/M02 A3005 RMK A01 T00531023  RH  058%=      5-min Rain = 0
KPD4 160855Z 19011KT 05/M02 A3005 RMK A01 T00541024  RH  057%=      5-min Rain = 0
KPD4 160856Z 19010KT 05/M02 A3005 RMK A01 T00531024  RH  057%=      5-min Rain = 0
KPD4 160857Z 19011KT 05/M02 A3005 RMK A01 T00531024  RH  058%=      5-min Rain = 0
KPD4 160858Z 19011KT 05/M02 A3005 RMK A01 T00541024  RH  057%=      5-min Rain = 0
KPD4 160859Z 19011KT 05/M02 A3005 RMK A01 T00541024  RH  057%=      5-min Rain = 0
KPD4 160900Z 19010KT 05/M02 A3005 RMK A01 T00531024  RH  057%=      5-min Rain = 0
KPD4 160901Z 19010KT 05/M02 A3005 RMK A01 T00531024  RH  058%=      5-min Rain = 0
KPD4 160902Z 19010KT 05/M02 A3005 RMK A01 T00531024  RH  058%=      5-min Rain = 0
KPD4 160903Z 19009KT 05/M02 A3005 RMK A01 T00521024  RH  058%=      5-min Rain = 0
KPD4 160904Z 19010KT 05/M03 A3005 RMK A01 T00511025  RH  058%=      5-min Rain = 0
KPD4 160905Z 19010KT 05/M02 A3005 RMK A01 T00511024  RH  058%=      5-min Rain = 0
KPD4 160906Z 19011KT 05/M02 A3005 RMK A01 T00521023  RH  058%=      5-min Rain = 0
KPD4 160907Z 19011KT 05/M02 A3005 RMK A01 T00531023  RH  058%=      5-min Rain = 0
KPD4 160908Z 19011KT 05/M02 A3005 RMK A01 T00531023  RH  058%=      5-min Rain = 0
KPD4 160909Z 19012KT 05/M02 A3005 RMK A01 T00531023  RH  058%=      5-min Rain = 0
KPD4 160910Z 19011KT 05/M02 A3005 RMK A01 T00541023  RH  058%=      5-min Rain = 0
KPD4 160911Z 19012KT 05/M02 A3005 RMK A01 T00541023  RH  058%=      5-min Rain = 0
KPD4 160912Z 19011KT 05/M02 A3005 RMK A01 T00541023  RH  058%=      5-min Rain = 0
KPD4 160913Z 19012KT 05/M02 A3005 RMK A01 T00541023  RH  058%=      5-min Rain = 0
KPD4 160914Z 19012KT 05/M02 A3005 RMK A01 T00541023  RH  058%=      5-min Rain = 0
KPD4 160915Z 19013KT 05/M02 A3005 RMK A01 T00541023  RH  058%=      5-min Rain = 0
KPD4 160916Z 19011KT 05/M02 A3005 RMK A01 T00541023  RH  058%=      5-min Rain = 0
KPD4 160917Z 19012KT 05/M02 A3005 RMK A01 T00541023  RH  058%=      5-min Rain = 0
KPD4 160918Z 18011KT 05/M02 A3005 RMK A01 T00531023  RH  058%=      5-min Rain = 0
KPD4 160919Z 19012KT 05/M02 A3005 RMK A01 T00531023  RH  058%=      5-min Rain = 0
KPD4 160920Z 19011KT 05/M02 A3005 RMK A01 T00531023  RH  058%=      5-min Rain = 0
KPD4 160921Z 19011KT 05/M02 A3005 RMK A01 T00521023  RH  058%=      5-min Rain = 0
KPD4 160922Z 19011KT 05/M02 A3005 RMK A01 T00531023  RH  058%=      5-min Rain = 0
KPD4 160923Z 19012KT 05/M02 A3005 RMK A01 T00521023  RH  058%=      5-min Rain = 0
KPD4 160924Z 19011KT 05/M02 A3005 RMK A01 T00531022  RH  058%=      5-min Rain = 0
KPD4 160925Z 19011KT 05/M02 A3005 RMK A01 T00531023  RH  058%=      5-min Rain = 0
KPD4 160926Z 19010KT 05/M02 A3005 RMK A01 T00521023  RH  058%=      5-min Rain = 0
KPD4 160927Z 19009KT 05/M02 A3005 RMK A01 T00521023  RH  059%=      5-min Rain = 0
KPD4 160928Z 18010KT 05/M02 A3005 RMK A01 T00511023  RH  059%=      5-min Rain = 0
KPD4 160929Z 18010KT 05/M02 A3005 RMK A01 T00501023  RH  059%=      5-min Rain = 0
KPD4 160930Z 18010KT 05/M02 A3005 RMK A01 T00501023  RH  059%=      5-min Rain = 0
KPD4 160931Z 18009KT 05/M02 A3005 RMK A01 T00501023  RH  059%=      5-min Rain = 0
KPD4 160932Z 18010KT 05/M02 A3005 RMK A01 T00501023  RH  059%=      5-min Rain = 0
KPD4 160933Z 18009KT 05/M02 A3005 RMK A01 T00501023  RH  059%=      5-min Rain = 0
KPD4 160934Z 19009KT 05/M02 A3005 RMK A01 T00501023  RH  059%=      5-min Rain = 0
KPD4 160935Z 19010KT 05/M02 A3004 RMK A01 T00491023  RH  059%=      5-min Rain = 0
KPD4 160936Z 19009KT 05/M02 A3004 RMK A01 T00491023  RH  060%=      5-min Rain = 0
KPD4 160937Z 18009KT 05/M02 A3004 RMK A01 T00491023  RH  059%=      5-min Rain = 0
KPD4 160938Z 18010KT 05/M02 A3004 RMK A01 T00491023  RH  060%=      5-min Rain = 0
KPD4 160939Z 18009KT 05/M02 A3004 RMK A01 T00491023  RH  060%=      5-min Rain = 0
KPD4 160940Z 19011KT 05/M02 A3004 RMK A01 T00491023  RH  060%=      5-min Rain = 0
KPD4 160941Z 18010KT 05/M02 A3004 RMK A01 T00491022  RH  060%=      5-min Rain = 0
KPD4 160942Z 18009KT 05/M02 A3004 RMK A01 T00491023  RH  060%=      5-min Rain = 0
KPD4 160943Z 18011KT 05/M02 A3004 RMK A01 T00481023  RH  060%=      5-min Rain = 0
KPD4 160944Z 18012KT 05/M02 A3004 RMK A01 T00481022  RH  060%=      5-min Rain = 0
KPD4 160945Z 18012KT 05/M02 A3004 RMK A01 T00491022  RH  060%=      5-min Rain = 0
KPD4 160946Z 17013KT 05/M02 A3004 RMK A01 T00511021  RH  060%=      5-min Rain = 0
KPD4 160947Z 18013KT 05/M02 A3004 RMK A01 T00521021  RH  059%=      5-min Rain = 0
KPD4 160948Z 18012KT 05/M02 A3004 RMK A01 T00521022  RH  059%=      5-min Rain = 0
KPD4 160949Z 18013KT 05/M02 A3004 RMK A01 T00511022  RH  059%=      5-min Rain = 0
KPD4 160950Z 18013KT 05/M02 A3004 RMK A01 T00501022  RH  060%=      5-min Rain = 0
KPD4 160951Z 18013KT 05/M02 A3004 RMK A01 T00501022  RH  060%=      5-min Rain = 0
KPD4 160952Z 17012KT 05/M02 A3004 RMK A01 T00501022  RH  060%=      5-min Rain = 0
KPD4 160953Z 18012KT 05/M02 A3004 RMK A01 T00501022  RH  060%=      5-min Rain = 0
KPD4 160954Z 18012KT 05/M02 A3004 RMK A01 T00501022  RH  060%=      5-min Rain = 0
KPD4 160955Z 18013KT 05/M02 A3004 RMK A01 T00501022  RH  060%=      5-min Rain = 0
KPD4 160956Z 18013KT 05/M02 A3003 RMK A01 T00511021  RH  060%=      5-min Rain = 0
KPD4 160957Z 18012KT 05/M02 A3003 RMK A01 T00511021  RH  060%=      5-min Rain = 0
KPD4 160958Z 18012KT 05/M02 A3003 RMK A01 T00511021  RH  060%=      5-min Rain = 0
KPD4 160959Z 18013KT 05/M02 A3003 RMK A01 T00521020  RH  060%=      5-min Rain = 0
KPD4 161000Z 18012KT 05/M02 A3003 RMK A01 T00531020  RH  059%=      5-min Rain = 0
KPD4 161001Z 18013KT 05/M02 A3003 RMK A01 T00531020  RH  059%=      5-min Rain = 0
KPD4 161002Z 18014KT 05/M02 A3003 RMK A01 T00541019  RH  059%=      5-min Rain = 0
KPD4 161003Z 18012KT 06/M02 A3003 RMK A01 T00561019  RH  059%=      5-min Rain = 0
KPD4 161004Z 18014KT 06/M02 A3003 RMK A01 T00571019  RH  058%=      5-min Rain = 0
KPD4 161005Z 18012KT 06/M02 A3003 RMK A01 T00571019  RH  058%=      5-min Rain = 0
KPD4 161006Z 18014KT 06/M02 A3003 RMK A01 T00571019  RH  058%=      5-min Rain = 0
KPD4 161007Z 18013KT 06/M02 A3003 RMK A01 T00571019  RH  058%=      5-min Rain = 0
KPD4 161008Z 18016KT 06/M02 A3003 RMK A01 T00571019  RH  058%=      5-min Rain = 0
KPD4 161009Z 19015KT 06/M02 A3003 RMK A01 T00581019  RH  058%=      5-min Rain = 0
KPD4 161010Z 18015KT 06/M02 A3003 RMK A01 T00591019  RH  058%=      5-min Rain = 0
KPD4 161011Z 19015KT 06/M02 A3003 RMK A01 T00591019  RH  057%=      5-min Rain = 0
KPD4 161012Z 18016KT 06/M02 A3003 RMK A01 T00591019  RH  057%=      5-min Rain = 0
KPD4 161013Z 18016KT 06/M02 A3003 RMK A01 T00591019  RH  057%=      5-min Rain = 0
KPD4 161014Z 18017KT 06/M02 A3003 RMK A01 T00591019  RH  057%=      5-min Rain = 0
KPD4 161015Z 19014KT 06/M02 A3003 RMK A01 T00591019  RH  057%=      5-min Rain = 0
KPD4 161016Z 19017KT 06/M02 A3003 RMK A01 T00571019  RH  058%=      5-min Rain = 0
KPD4 161017Z 19015KT 06/M02 A3003 RMK A01 T00571019  RH  058%=      5-min Rain = 0
KPD4 161018Z 19013KT 06/M02 A3003 RMK A01 T00571020  RH  058%=      5-min Rain = 0
KPD4 161019Z 19014KT 06/M02 A3003 RMK A01 T00561020  RH  058%=      5-min Rain = 0
KPD4 161020Z 19015KT 06/M02 A3003 RMK A01 T00561019  RH  058%=      5-min Rain = 0
KPD4 161021Z 18014KT 06/M02 A3003 RMK A01 T00561019  RH  058%=      5-min Rain = 0
KPD4 161022Z 19014KT 06/M02 A3003 RMK A01 T00561019  RH  058%=      5-min Rain = 0
KPD4 161023Z 19014KT 06/M02 A3002 RMK A01 T00561019  RH  059%=      5-min Rain = 0
KPD4 161024Z 18012KT 06/M02 A3002 RMK A01 T00551019  RH  059%=      5-min Rain = 0
KPD4 161025Z 19015KT 06/M02 A3002 RMK A01 T00551019  RH  059%=      5-min Rain = 0
KPD4 161026Z 18014KT 06/M02 A3002 RMK A01 T00551019  RH  059%=      5-min Rain = 0
KPD4 161027Z 19014KT 06/M02 A3002 RMK A01 T00551019  RH  059%=      5-min Rain = 0
KPD4 161028Z 19014KT 06/M02 A3002 RMK A01 T00551018  RH  059%=      5-min Rain = 0
KPD4 161029Z 19013KT 05/M02 A3002 RMK A01 T00541019  RH  059%=      5-min Rain = 0
KPD4 161030Z 19015KT 06/M02 A3002 RMK A01 T00551018  RH  059%=      5-min Rain = 0
KPD4 161031Z 18016KT 06/M02 A3002 RMK A01 T00571017  RH  059%=      5-min Rain = 0
KPD4 161032Z 18016KT 06/M02 A3002 RMK A01 T00591017  RH  058%=      5-min Rain = 0
KPD4 161033Z 19014KT 06/M02 A3002 RMK A01 T00591017  RH  058%=      5-min Rain = 0
KPD4 161034Z 18015KT 06/M02 A3002 RMK A01 T00581018  RH  058%=      5-min Rain = 0
KPD4 161035Z 18017KT 06/M02 A3002 RMK A01 T00571018  RH  058%=      5-min Rain = 0
KPD4 161036Z 19016KT 06/M02 A3002 RMK A01 T00601016  RH  058%=      5-min Rain = 0
KPD4 161037Z 19013KT 06/M02 A3002 RMK A01 T00611016  RH  058%=      5-min Rain = 0
KPD4 161038Z 18014KT 06/M02 A3002 RMK A01 T00611017  RH  058%=      5-min Rain = 0
KPD4 161039Z 19014KT 06/M02 A3002 RMK A01 T00601017  RH  058%=      5-min Rain = 0
KPD4 161040Z 19016KT 06/M02 A3002 RMK A01 T00601017  RH  058%=      5-min Rain = 0
KPD4 161041Z 19016KT 06/M02 A3002 RMK A01 T00611016  RH  058%=      5-min Rain = 0
KPD4 161042Z 18015KT 06/M02 A3002 RMK A01 T00621016  RH  057%=      5-min Rain = 0
KPD4 161043Z 19014KT 06/M02 A3002 RMK A01 T00621016  RH  057%=      5-min Rain = 0
KPD4 161044Z 19013KT 06/M02 A3002 RMK A01 T00611017  RH  057%=      5-min Rain = 0
KPD4 161045Z 19013KT 06/M02 A3002 RMK A01 T00601017  RH  058%=      5-min Rain = 0
KPD4 161046Z 19014KT 06/M02 A3002 RMK A01 T00601016  RH  058%=      5-min Rain = 0
KPD4 161047Z 19015KT 06/M02 A3002 RMK A01 T00611016  RH  058%=      5-min Rain = 0
KPD4 161048Z 19014KT 06/M02 A3002 RMK A01 T00611016  RH  058%=      5-min Rain = 0
KPD4 161049Z 19013KT 06/M02 A3002 RMK A01 T00621015  RH  058%=      5-min Rain = 0
KPD4 161050Z 19013KT 06/M02 A3002 RMK A01 T00621016  RH  058%=      5-min Rain = 0
KPD4 161051Z 19015KT 06/M02 A3002 RMK A01 T00621015  RH  058%=      5-min Rain = 0
KPD4 161052Z 19014KT 06/M02 A3002 RMK A01 T00621016  RH  058%=      5-min Rain = 0
KPD4 161053Z 19015KT 06/M02 A3002 RMK A01 T00621015  RH  058%=      5-min Rain = 0
KPD4 161054Z 19015KT 06/M02 A3002 RMK A01 T00621016  RH  058%=      5-min Rain = 0
KPD4 161055Z 19015KT 06/M02 A3001 RMK A01 T00621015  RH  058%=      5-min Rain = 0
KPD4 161056Z 19013KT 06/M02 A3002 RMK A01 T00621015  RH  058%=      5-min Rain = 0
KPD4 161057Z 19014KT 06/M02 A3001 RMK A01 T00621015  RH  058%=      5-min Rain = 0
KPD4 161058Z 19016KT 06/M02 A3001 RMK A01 T00621015  RH  058%=      5-min Rain = 0
KPD4 161059Z 19016KT 06/M02 A3001 RMK A01 T00631015  RH  057%=      5-min Rain = 0
KPD4 161100Z 19015KT 06/M02 A3001 RMK A01 T00631015  RH  057%=      5-min Rain = 0
KPD4 161101Z 19016KT 06/M02 A3001 RMK A01 T00631015  RH  058%=      5-min Rain = 0
KPD4 161102Z 19015KT 06/M02 A3001 RMK A01 T00631015  RH  058%=      5-min Rain = 0
KPD4 161103Z 20015KT 06/M02 A3001 RMK A01 T00631015  RH  058%=      5-min Rain = 0
KPD4 161104Z 19015KT 06/M02 A3001 RMK A01 T00621015  RH  058%=      5-min Rain = 0
KPD4 161105Z 19015KT 06/M02 A3001 RMK A01 T00621015  RH  058%=      5-min Rain = 0
KPD4 161106Z 20015KT 06/M02 A3001 RMK A01 T00621015  RH  058%=      5-min Rain = 0
KPD4 161107Z 20015KT 06/M02 A3001 RMK A01 T00621015  RH  058%=      5-min Rain = 0
KPD4 161108Z 20015G20KT 06/M01 A3001 RMK A01 T00621014  RH  058%=      5-min Rain = 0
KPD4 161109Z 19015KT 06/M02 A3001 RMK A01 T00621015  RH  058%=      5-min Rain = 0
KPD4 161110Z 19014KT 06/M01 A3001 RMK A01 T00621014  RH  058%=      5-min Rain = 0
KPD4 161111Z 19015KT 06/M02 A3001 RMK A01 T00621015  RH  058%=      5-min Rain = 0
KPD4 161112Z 20015KT 06/M01 A3001 RMK A01 T00621014  RH  058%=      5-min Rain = 0
KPD4 161113Z 19014KT 06/M01 A3001 RMK A01 T00621014  RH  058%=      5-min Rain = 0
KPD4 161114Z 20014KT 06/M01 A3001 RMK A01 T00621014  RH  058%=      5-min Rain = 0
KPD4 161115Z 20013KT 06/M01 A3001 RMK A01 T00621014  RH  058%=      5-min Rain = 0
KPD4 161116Z 20013KT 06/M01 A3001 RMK A01 T00621014  RH  058%=      5-min Rain = 0
KPD4 161117Z 20014KT 06/M01 A3001 RMK A01 T00621014  RH  058%=      5-min Rain = 0
KPD4 161118Z 20015KT 06/M01 A3001 RMK A01 T00631014  RH  058%=      5-min Rain = 0
KPD4 161119Z 20014KT 06/M01 A3001 RMK A01 T00631014  RH  058%=      5-min Rain = 0
KPD4 161120Z 20014KT 06/M01 A3001 RMK A01 T00621014  RH  058%=      5-min Rain = 0
KPD4 161121Z 20014KT 06/M01 A3001 RMK A01 T00621014  RH  058%=      5-min Rain = 0
KPD4 161122Z 20014KT 06/M01 A3001 RMK A01 T00621014  RH  058%=      5-min Rain = 0
KPD4 161123Z 20014KT 06/M01 A3001 RMK A01 T00631014  RH  058%=      5-min Rain = 0
KPD4 161124Z 19014KT 06/M01 A3001 RMK A01 T00621014  RH  058%=      5-min Rain = 0
KPD4 161125Z 19013KT 06/M01 A3001 RMK A01 T00621014  RH  058%=      5-min Rain = 0
KPD4 161126Z 20014KT 06/M01 A3001 RMK A01 T00621013  RH  058%=      5-min Rain = 0
KPD4 161127Z 19013KT 06/M01 A3001 RMK A01 T00621013  RH  059%=      5-min Rain = 0
KPD4 161128Z 19014KT 06/M01 A3001 RMK A01 T00621013  RH  059%=      5-min Rain = 0
KPD4 161129Z 19014KT 06/M01 A3001 RMK A01 T00621013  RH  059%=      5-min Rain = 0
KPD4 161130Z 19014KT 06/M01 A3001 RMK A01 T00611014  RH  059%=      5-min Rain = 0
KPD4 161131Z 19014KT 06/M01 A3001 RMK A01 T00611014  RH  059%=      5-min Rain = 0
KPD4 161132Z 19014KT 06/M01 A3001 RMK A01 T00621013  RH  059%=      5-min Rain = 0
KPD4 161133Z 19015KT 06/M01 A3001 RMK A01 T00621013  RH  059%=      5-min Rain = 0
KPD4 161134Z 19015KT 06/M01 A3001 RMK A01 T00621013  RH  058%=      5-min Rain = 0
KPD4 161135Z 19014G19KT 06/M01 A30 RMK A01 T00621013  RH  058%=      5-min Rain = 0
KPD4 161136Z 19014KT 06/M01 A3001 RMK A01 T00621013  RH  058%=      5-min Rain = 0
KPD4 161137Z 19013KT 06/M01 A3001 RMK A01 T00631013  RH  058%=      5-min Rain = 0
KPD4 161138Z 19013KT 06/M01 A3001 RMK A01 T00631013  RH  058%=      5-min Rain = 0
KPD4 161139Z 19013KT 06/M01 A3001 RMK A01 T00621013  RH  059%=      5-min Rain = 0
KPD4 161140Z 19012KT 06/M01 A3001 RMK A01 T00621013  RH  059%=      5-min Rain = 0
KPD4 161141Z 19013KT 06/M01 A3001 RMK A01 T00621013  RH  059%=      5-min Rain = 0
KPD4 161142Z 19012KT 06/M01 A3001 RMK A01 T00611013  RH  059%=      5-min Rain = 0
KPD4 161143Z 19013KT 06/M01 A3001 RMK A01 T00611013  RH  059%=      5-min Rain = 0
KPD4 161144Z 19012KT 06/M01 A3001 RMK A01 T00611013  RH  059%=      5-min Rain = 0
KPD4 161145Z 19013KT 06/M01 A3001 RMK A01 T00611013  RH  059%=      5-min Rain = 0
KPD4 161146Z 19012KT 06/M01 A3001 RMK A01 T00601013  RH  059%=      5-min Rain = 0
KPD4 161147Z 19013KT 06/M01 A3001 RMK A01 T00601013  RH  059%=      5-min Rain = 0
KPD4 161148Z 19012KT 06/M01 A3001 RMK A01 T00601013  RH  059%=      5-min Rain = 0
KPD4 161149Z 19014KT 06/M01 A3001 RMK A01 T00601013  RH  059%=      5-min Rain = 0
KPD4 161150Z 19012KT 06/M01 A3001 RMK A01 T00601013  RH  059%=      5-min Rain = 0
KPD4 161151Z 19011KT 06/M01 A3001 RMK A01 T00601013  RH  059%=      5-min Rain = 0
KPD4 161152Z 19011KT 06/M01 A3001 RMK A01 T00601013  RH  059%=      5-min Rain = 0
KPD4 161153Z 19012KT 06/M01 A3001 RMK A01 T00601013  RH  059%=      5-min Rain = 0
KPD4 161154Z 19011KT 06/M01 A3001 RMK A01 T00591013  RH  060%=      5-min Rain = 0
KPD4 161155Z 19013KT 06/M01 A3001 RMK A01 T00591014  RH  060%=      5-min Rain = 0
KPD4 161156Z 19013KT 06/M01 A3001 RMK A01 T00591013  RH  060%=      5-min Rain = 0
KPD4 161157Z 19012KT 06/M01 A3001 RMK A01 T00591013  RH  060%=      5-min Rain = 0
KPD4 161158Z 19012KT 06/M01 A3001 RMK A01 T00591013  RH  060%=      5-min Rain = 0
KPD4 161159Z 19011KT 06/M01 A3001 RMK A01 T00591013  RH  060%=      5-min Rain = 0
KPD4 161200Z 19013KT 06/M01 A3001 RMK A01 T00591013  RH  060%=      5-min Rain = 0
KPD4 161201Z 19013KT 06/M01 A3001 RMK A01 T00591012  RH  060%=      5-min Rain = 0
KPD4 161202Z 19013KT 06/M01 A3001 RMK A01 T00591013  RH  060%=      5-min Rain = 0
KPD4 161203Z 19013KT 06/M01 A3001 RMK A01 T00601012  RH  060%=      5-min Rain = 0
KPD4 161204Z 19012KT 06/M01 A3001 RMK A01 T00601012  RH  060%=      5-min Rain = 0
KPD4 161205Z 19014KT 06/M01 A3001 RMK A01 T00601012  RH  060%=      5-min Rain = 0
KPD4 161206Z 19014KT 06/M01 A3001 RMK A01 T00601012  RH  060%=      5-min Rain = 0
KPD4 161207Z 19012KT 06/M01 A3001 RMK A01 T00611012  RH  060%=      5-min Rain = 0
KPD4 161208Z 20013KT 06/M01 A3001 RMK A01 T00611012  RH  060%=      5-min Rain = 0
KPD4 161209Z 19011KT 06/M01 A3001 RMK A01 T00611012  RH  060%=      5-min Rain = 0
KPD4 161210Z 19013KT 06/M01 A3001 RMK A01 T00611012  RH  060%=      5-min Rain = 0
KPD4 161211Z 20011KT 06/M01 A3001 RMK A01 T00611011  RH  060%=      5-min Rain = 0
KPD4 161212Z 19013KT 06/M01 A3001 RMK A01 T00611011  RH  060%=      5-min Rain = 0
KPD4 161213Z 20013KT 06/M01 A3001 RMK A01 T00601012  RH  060%=      5-min Rain = 0
KPD4 161214Z 20013KT 06/M01 A3001 RMK A01 T00611011  RH  060%=      5-min Rain = 0
KPD4 161215Z 20012G17KT 06/M01 A3001 RMK A01 T00621011  RH  060%=      5-min Rain = 0
KPD4 161216Z 19014KT 06/M01 A3001 RMK A01 T00611011  RH  060%=      5-min Rain = 0
KPD4 161217Z 19014KT 06/M01 A3001 RMK A01 T00621011  RH  060%=      5-min Rain = 0
KPD4 161218Z 20012KT 06/M01 A3001 RMK A01 T00621011  RH  059%=      5-min Rain = 0
KPD4 161219Z 19012G17KT 06/M01 A3001 RMK A01 T00621011  RH  059%=      5-min Rain = 0
KPD4 161220Z 19013KT 06/M01 A3001 RMK A01 T00621011  RH  060%=      5-min Rain = 0
KPD4 161221Z 19013KT 06/M01 A3001 RMK A01 T00621011  RH  060%=      5-min Rain = 0
KPD4 161222Z 19012KT 06/M01 A3001 RMK A01 T00621011  RH  060%=      5-min Rain = 0
KPD4 161223Z 19011KT 06/M01 A3001 RMK A01 T00621011  RH  060%=      5-min Rain = 0
KPD4 161224Z 19012KT 06/M01 A3001 RMK A01 T00611011  RH  060%=      5-min Rain = 0
KPD4 161225Z 20011KT 06/M01 A3001 RMK A01 T00611011  RH  060%=      5-min Rain = 0
KPD4 161226Z 19012KT 06/M01 A3001 RMK A01 T00611011  RH  060%=      5-min Rain = 0
KPD4 161227Z 20014KT 06/M01 A3001 RMK A01 T00611011  RH  060%=      5-min Rain = 0
KPD4 161228Z 20015KT 06/M01 A3001 RMK A01 T00611011  RH  060%=      5-min Rain = 0
KPD4 161229Z 20015KT 06/M01 A3001 RMK A01 T00611011  RH  060%=      5-min Rain = 0
KPD4 161230Z 20013KT 06/M01 A3001 RMK A01 T00611011  RH  060%=      5-min Rain = 0
KPD4 161231Z 19012KT 06/M01 A3001 RMK A01 T00611011  RH  060%=      5-min Rain = 0
KPD4 161232Z 20013KT 06/M01 A3001 RMK A01 T00611011  RH  060%=      5-min Rain = 0
KPD4 161233Z 19013KT 06/M01 A3001 RMK A01 T00601011  RH  060%=      5-min Rain = 0
KPD4 161234Z 19013KT 06/M01 A3001 RMK A01 T00601012  RH  060%=      5-min Rain = 0
KPD4 161235Z 19012KT 06/M01 A3001 RMK A01 T00601012  RH  060%=      5-min Rain = 0
KPD4 161236Z 19013KT 06/M01 A3001 RMK A01 T00601011  RH  060%=      5-min Rain = 0
KPD4 161237Z 20013KT 06/M01 A3001 RMK A01 T00601011  RH  060%=      5-min Rain = 0
KPD4 161238Z 19012KT 06/M01 A3001 RMK A01 T00601011  RH  060%=      5-min Rain = 0
KPD4 161239Z 19011KT 06/M01 A3001 RMK A01 T00601011  RH  060%=      5-min Rain = 0
KPD4 161240Z 19011KT 06/M01 A3001 RMK A01 T00601011  RH  060%=      5-min Rain = 0
KPD4 161241Z 19011KT 06/M01 A3001 RMK A01 T00591012  RH  060%=      5-min Rain = 0
KPD4 161242Z 19010KT 06/M01 A3001 RMK A01 T00591012  RH  061%=      5-min Rain = 0
KPD4 161243Z 19010KT 06/M01 A3001 RMK A01 T00581012  RH  061%=      5-min Rain = 0
KPD4 161244Z 20011KT 06/M01 A3001 RMK A01 T00581011  RH  061%=      5-min Rain = 0
KPD4 161245Z 20009KT 06/M01 A3001 RMK A01 T00581011  RH  061%=      5-min Rain = 0
KPD4 161246Z 20010KT 06/M01 A3001 RMK A01 T00581012  RH  061%=      5-min Rain = 0
KPD4 161247Z 20008KT 06/M01 A3001 RMK A01 T00581012  RH  061%=      5-min Rain = 0
KPD4 161248Z 20010KT 06/M01 A3001 RMK A01 T00571012  RH  061%=      5-min Rain = 0
KPD4 161249Z 20008KT 06/M01 A3001 RMK A01 T00571012  RH  061%=      5-min Rain = 0
KPD4 161250Z 20008KT 06/M01 A3001 RMK A01 T00571012  RH  061%=      5-min Rain = 0
KPD4 161251Z 20008KT 06/M01 A3001 RMK A01 T00571012  RH  061%=      5-min Rain = 0
KPD4 161252Z 20009KT 06/M01 A3001 RMK A01 T00571011  RH  061%=      5-min Rain = 0
KPD4 161253Z 20009KT 06/M01 A3001 RMK A01 T00571011  RH  061%=      5-min Rain = 0
KPD4 161254Z 20007KT 06/M01 A3001 RMK A01 T00571012  RH  061%=      5-min Rain = 0
KPD4 161255Z 20009KT 06/M01 A3001 RMK A01 T00561012  RH  062%=      5-min Rain = 0
KPD4 161256Z 20009KT 06/M01 A3001 RMK A01 T00551012  RH  062%=      5-min Rain = 0
KPD4 161257Z 20010KT 06/M01 A3001 RMK A01 T00551012  RH  062%=      5-min Rain = 0
KPD4 161258Z 20011KT 06/M01 A3002 RMK A01 T00551012  RH  062%=      5-min Rain = 0
KPD4 161259Z 20011KT 06/M01 A3002 RMK A01 T00561012  RH  062%=      5-min Rain = 0
KPD4 161300Z 20010KT 06/M01 A3002 RMK A01 T00561011  RH  062%=      5-min Rain = 0
KPD4 161301Z 20010KT 06/M01 A3001 RMK A01 T00561011  RH  062%=      5-min Rain = 0
KPD4 161302Z 19010KT 06/M01 A3001 RMK A01 T00561011  RH  062%=      5-min Rain = 0
KPD4 161303Z 19010KT 06/M01 A3001 RMK A01 T00561012  RH  062%=      5-min Rain = 0
KPD4 161304Z 19010KT 06/M01 A3001 RMK A01 T00551012  RH  062%=      5-min Rain = 0
KPD4 161305Z 19009KT 06/M01 A3001 RMK A01 T00551012  RH  062%=      5-min Rain = 0
KPD4 161306Z 19011KT 05/M01 A3001 RMK A01 T00541012  RH  062%=      5-min Rain = 0
KPD4 161307Z 19012KT 05/M01 A3001 RMK A01 T00541012  RH  062%=      5-min Rain = 0
KPD4 161308Z 19011KT 06/M01 A3001 RMK A01 T00551011  RH  062%=      5-min Rain = 0
KPD4 161309Z 19011KT 06/M01 A3001 RMK A01 T00551011  RH  062%=      5-min Rain = 0
KPD4 161310Z 19009KT 06/M01 A3001 RMK A01 T00551011  RH  062%=      5-min Rain = 0
KPD4 161311Z 19011KT 06/M01 A3001 RMK A01 T00551011  RH  062%=      5-min Rain = 0
KPD4 161312Z 20012KT 06/M01 A3001 RMK A01 T00551011  RH  062%=      5-min Rain = 0
KPD4 161313Z 19011KT 06/M01 A3001 RMK A01 T00551011  RH  062%=      5-min Rain = 0
KPD4 161314Z 20011KT 06/M01 A3001 RMK A01 T00551012  RH  062%=      5-min Rain = 0
KPD4 161315Z 19011KT 06/M01 A3001 RMK A01 T00551012  RH  062%=      5-min Rain = 0
KPD4 161316Z 19011KT 06/M01 A3001 RMK A01 T00551011  RH  062%=      5-min Rain = 0
KPD4 161317Z 19011KT 06/M01 A3001 RMK A01 T00551011  RH  062%=      5-min Rain = 0
KPD4 161318Z 19010KT 06/M01 A3001 RMK A01 T00551011  RH  062%=      5-min Rain = 0
KPD4 161319Z 19011KT 05/M01 A3001 RMK A01 T00541011  RH  063%=      5-min Rain = 0
KPD4 161320Z 19012KT 05/M01 A3001 RMK A01 T00541011  RH  063%=      5-min Rain = 0
KPD4 161321Z 19010KT 05/M01 A3001 RMK A01 T00541011  RH  063%=      5-min Rain = 0
KPD4 161322Z 19011KT 05/M01 A3001 RMK A01 T00541011  RH  063%=      5-min Rain = 0
KPD4 161323Z 19011KT 05/M01 A3001 RMK A01 T00541012  RH  063%=      5-min Rain = 0
KPD4 161324Z 19010KT 05/M01 A3001 RMK A01 T00541011  RH  063%=      5-min Rain = 0
KPD4 161325Z 19011KT 05/M01 A3001 RMK A01 T00541011  RH  063%=      5-min Rain = 0
KPD4 161326Z 19011KT 05/M01 A3001 RMK A01 T00541011  RH  063%=      5-min Rain = 0
KPD4 161327Z 19013KT 05/M01 A3001 RMK A01 T00541011  RH  063%=      5-min Rain = 0
KPD4 161328Z 19011KT 06/M01 A3001 RMK A01 T00551011  RH  063%=      5-min Rain = 0
KPD4 161329Z 19010KT 06/M01 A3001 RMK A01 T00551011  RH  062%=      5-min Rain = 0
KPD4 161330Z 20011KT 06/M01 A3001 RMK A01 T00551011  RH  062%=      5-min Rain = 0
KPD4 161331Z 19011KT 06/M01 A3001 RMK A01 T00551011  RH  062%=      5-min Rain = 0
KPD4 161332Z 19011KT 06/M01 A3001 RMK A01 T00551011  RH  063%=      5-min Rain = 0
KPD4 161333Z 19010KT 06/M01 A3001 RMK A01 T00551011  RH  062%=      5-min Rain = 0
KPD4 161334Z 19011KT 06/M01 A3001 RMK A01 T00561011  RH  062%=      5-min Rain = 0
KPD4 161335Z 20011KT 06/M01 A3001 RMK A01 T00561011  RH  062%=      5-min Rain = 0
KPD4 161336Z 20010KT 06/M01 A3001 RMK A01 T00561011  RH  062%=      5-min Rain = 0
KPD4 161337Z 19011KT 06/M01 A3001 RMK A01 T00561011  RH  062%=      5-min Rain = 0
KPD4 161338Z 20011KT 06/M01 A3001 RMK A01 T00561011  RH  062%=      5-min Rain = 0
KPD4 161339Z 20012KT 06/M01 A3002 RMK A01 T00571010  RH  062%=      5-min Rain = 0
KPD4 161340Z 20011KT 06/M01 A3002 RMK A01 T00581010  RH  062%=      5-min Rain = 0
KPD4 161341Z 20011KT 06/M01 A3002 RMK A01 T00581010  RH  061%=      5-min Rain = 0
KPD4 161342Z 20011KT 06/M01 A3002 RMK A01 T00581010  RH  061%=      5-min Rain = 0
KPD4 161343Z 20010KT 06/M01 A3002 RMK A01 T00591010  RH  061%=      5-min Rain = 0
KPD4 161344Z 20012KT 06/M01 A3002 RMK A01 T00591010  RH  061%=      5-min Rain = 0
KPD4 161345Z 20013KT 06/M01 A3002 RMK A01 T00591010  RH  061%=      5-min Rain = 0
KPD4 161346Z 20013KT 06/M01 A3002 RMK A01 T00601010  RH  061%=      5-min Rain = 0
KPD4 161347Z 20011KT 06/M01 A3002 RMK A01 T00601009  RH  061%=      5-min Rain = 0
KPD4 161348Z 20009KT 06/M01 A3002 RMK A01 T00601010  RH  061%=      5-min Rain = 0
KPD4 161349Z 20011KT 06/M01 A3002 RMK A01 T00601010  RH  061%=      5-min Rain = 0
KPD4 161350Z 20012KT 06/M01 A3002 RMK A01 T00601010  RH  061%=      5-min Rain = 0
KPD4 161351Z 21011KT 06/M01 A3002 RMK A01 T00601009  RH  061%=      5-min Rain = 0
KPD4 161352Z 20011KT 06/M01 A3001 RMK A01 T00611009  RH  061%=      5-min Rain = 0
KPD4 161353Z 20011KT 06/M01 A3001 RMK A01 T00611009  RH  061%=      5-min Rain = 0
KPD4 161354Z 20012KT 06/M01 A3001 RMK A01 T00621009  RH  061%=      5-min Rain = 0
KPD4 161355Z 20012KT 06/M01 A3001 RMK A01 T00621009  RH  060%=      5-min Rain = 0
KPD4 161356Z 20009KT 06/M01 A3001 RMK A01 T00621009  RH  060%=      5-min Rain = 0
KPD4 161357Z 20010KT 06/M01 A3001 RMK A01 T00631009  RH  060%=      5-min Rain = 0
KPD4 161358Z 20010KT 06/M01 A3001 RMK A01 T00631009  RH  060%=      5-min Rain = 0
KPD4 161359Z 20010KT 06/M01 A3001 RMK A01 T00631009  RH  060%=      5-min Rain = 0
KPD4 161400Z 20008KT 06/M01 A3002 RMK A01 T00631009  RH  060%=      5-min Rain = 0
KPD4 161401Z 20010KT 06/M01 A3002 RMK A01 T00631009  RH  060%=      5-min Rain = 0
KPD4 161402Z 20010KT 06/M01 A3002 RMK A01 T00621009  RH  060%=      5-min Rain = 0
KPD4 161403Z 20010KT 06/M01 A3002 RMK A01 T00621009  RH  060%=      5-min Rain = 0
KPD4 161404Z 20010KT 06/M01 A3002 RMK A01 T00621009  RH  060%=      5-min Rain = 0
KPD4 161405Z 20011KT 06/M01 A3002 RMK A01 T00621009  RH  061%=      5-min Rain = 0
KPD4 161406Z 19011KT 06/M01 A3002 RMK A01 T00621009  RH  060%=      5-min Rain = 0
KPD4 161407Z 20011KT 06/M01 A3002 RMK A01 T00631009  RH  060%=      5-min Rain = 0
KPD4 161408Z 20011KT 06/M01 A3002 RMK A01 T00631008  RH  060%=      5-min Rain = 0
KPD4 161409Z 19011KT 06/M01 A3001 RMK A01 T00641008  RH  060%=      5-min Rain = 0
KPD4 161410Z 19010KT 06/M01 A3001 RMK A01 T00641008  RH  060%=      5-min Rain = 0
KPD4 161411Z 20011KT 07/M01 A3001 RMK A01 T00651009  RH  059%=      5-min Rain = 0
KPD4 161412Z 19010KT 07/M01 A3001 RMK A01 T00651008  RH  060%=      5-min Rain = 0
KPD4 161413Z 19011KT 07/M01 A3001 RMK A01 T00651008  RH  060%=      5-min Rain = 0
KPD4 161414Z 20009KT 06/M01 A3001 RMK A01 T00641008  RH  060%=      5-min Rain = 0
KPD4 161415Z 19010KT 06/M01 A3001 RMK A01 T00641008  RH  060%=      5-min Rain = 0
KPD4 161416Z 20011KT 06/M01 A3001 RMK A01 T00631009  RH  060%=      5-min Rain = 0
KPD4 161417Z 20012KT 06/M01 A3001 RMK A01 T00621008  RH  060%=      5-min Rain = 0
KPD4 161418Z 20012KT 06/M01 A3001 RMK A01 T00621008  RH  061%=      5-min Rain = 0
KPD4 161419Z 20012KT 06/M01 A3001 RMK A01 T00611009  RH  061%=      5-min Rain = 0
KPD4 161420Z 20011KT 06/M01 A3002 RMK A01 T00621008  RH  061%=      5-min Rain = 0
KPD4 161421Z 20012KT 06/M01 A3001 RMK A01 T00611009  RH  061%=      5-min Rain = 0
KPD4 161422Z 20010KT 06/M01 A3001 RMK A01 T00601009  RH  061%=      5-min Rain = 0
KPD4 161423Z 20011KT 06/M01 A3001 RMK A01 T00591009  RH  061%=      5-min Rain = 0
KPD4 161424Z 20012KT 06/M01 A3001 RMK A01 T00591009  RH  062%=      5-min Rain = 0
KPD4 161425Z 20012KT 06/M01 A3001 RMK A01 T00591009  RH  062%=      5-min Rain = 0
KPD4 161426Z 20012KT 06/M01 A3001 RMK A01 T00591009  RH  062%=      5-min Rain = 0
KPD4 161427Z 20013KT 06/M01 A3001 RMK A01 T00601008  RH  062%=      5-min Rain = 0
KPD4 161428Z 19012KT 06/M01 A3001 RMK A01 T00611008  RH  061%=      5-min Rain = 0
KPD4 161429Z 19012KT 06/M01 A3001 RMK A01 T00611008  RH  061%=      5-min Rain = 0
KPD4 161430Z 20012KT 06/M01 A3001 RMK A01 T00621008  RH  061%=      5-min Rain = 0
KPD4 161431Z 19013KT 06/M01 A3001 RMK A01 T00621008  RH  061%=      5-min Rain = 0
KPD4 161432Z 19013KT 06/M01 A3001 RMK A01 T00631008  RH  061%=      5-min Rain = 0
KPD4 161433Z 20012KT 06/M01 A3001 RMK A01 T00641007  RH  060%=      5-min Rain = 0
KPD4 161434Z 20011KT 06/M01 A3001 RMK A01 T00641007  RH  060%=      5-min Rain = 0
KPD4 161435Z 20010KT 07/M01 A3001 RMK A01 T00651007  RH  060%=      5-min Rain = 0
KPD4 161436Z 19011KT 07/M01 A3001 RMK A01 T00651007  RH  060%=      5-min Rain = 0
KPD4 161437Z 20014KT 07/M01 A3001 RMK A01 T00671006  RH  060%=      5-min Rain = 0
KPD4 161438Z 19011G16KT 07/M01 A3001 RMK A01 T00681006  RH  059%=      5-min Rain = 0
KPD4 161439Z 19012KT 07/M01 A3001 RMK A01 T00691006  RH  059%=      5-min Rain = 0
KPD4 161440Z 19014KT 07/M01 A3001 RMK A01 T00701006  RH  058%=      5-min Rain = 0
KPD4 161441Z 20013KT 07/M01 A3001 RMK A01 T00711006  RH  058%=      5-min Rain = 0
KPD4 161442Z 19013KT 07/M01 A3001 RMK A01 T00721005  RH  058%=      5-min Rain = 0
KPD4 161443Z 20014KT 07/M01 A3001 RMK A01 T00731005  RH  057%=      5-min Rain = 0
KPD4 161444Z 19013KT 07/M01 A3001 RMK A01 T00731006  RH  057%=      5-min Rain = 0
KPD4 161445Z 20011KT 07/M01 A3001 RMK A01 T00741005  RH  057%=      5-min Rain = 0
KPD4 161446Z 20012KT 08/M01 A3001 RMK A01 T00751005  RH  057%=      5-min Rain = 0
KPD4 161447Z 20012KT 08/M01 A3001 RMK A01 T00751005  RH  057%=      5-min Rain = 0
KPD4 161448Z 20013KT 08/M01 A3001 RMK A01 T00751005  RH  057%=      5-min Rain = 0
KPD4 161449Z 20015KT 08/M01 A3001 RMK A01 T00761005  RH  056%=      5-min Rain = 0
KPD4 161450Z 20012KT 08/M00 A3001 RMK A01 T00771004  RH  056%=      5-min Rain = 0
KPD4 161451Z 20011KT 08/M00 A3001 RMK A01 T00781004  RH  056%=      5-min Rain = 0
KPD4 161452Z 21011KT 08/M00 A3001 RMK A01 T00801004  RH  056%=      5-min Rain = 0
KPD4 161453Z 21011KT 08/M00 A3001 RMK A01 T00821002  RH  055%=      5-min Rain = 0
KPD4 161454Z 21011KT 09/M00 A3001 RMK A01 T00851002  RH  054%=      5-min Rain = 0
KPD4 161455Z 22014KT 09/M00 A3001 RMK A01 T00861003  RH  054%=      5-min Rain = 0
KPD4 161456Z 21011KT 09/M00 A3001 RMK A01 T00861004  RH  053%=      5-min Rain = 0
KPD4 161457Z 20015KT 09/M00 A3001 RMK A01 T00871003  RH  053%=      5-min Rain = 0
KPD4 161458Z 21017KT 09/M00 A3001 RMK A01 T00861004  RH  053%=      5-min Rain = 0
KPD4 161459Z 20017KT 09/M01 A3001 RMK A01 T00851005  RH  053%=      5-min Rain = 0
KPD4 161500Z 20013KT 08/M00 A3001 RMK A01 T00841004  RH  054%=      5-min Rain = 0
KPD4 161501Z 20014KT 09/M00 A3001 RMK A01 T00861003  RH  054%=      5-min Rain = 0
KPD4 161502Z 20015KT 09/M00 A3001 RMK A01 T00871003  RH  053%=      5-min Rain = 0
KPD4 161503Z 21015KT 09/M00 A3001 RMK A01 T00871003  RH  053%=      5-min Rain = 0
KPD4 161504Z 21016KT 09/M00 A3001 RMK A01 T00871004  RH  053%=      5-min Rain = 0
KPD4 161505Z 20012KT 09/M00 A3001 RMK A01 T00881003  RH  053%=      5-min Rain = 0
KPD4 161506Z 19012G17KT 09/M00 A3001 RMK A01 T00901001  RH  053%=      5-min Rain = 0
KPD4 161507Z 19011KT 09/M00 A3001 RMK A01 T00911002  RH  052%=      5-min Rain = 0
KPD4 161508Z 19013KT 09/M00 A3001 RMK A01 T00931002  RH  052%=      5-min Rain = 0
KPD4 161509Z 20015KT 09/M00 A3001 RMK A01 T00931002  RH  051%=      5-min Rain = 0
KPD4 161510Z 20013KT 09/M00 A3001 RMK A01 T00921003  RH  051%=      5-min Rain = 0
KPD4 161511Z 20014KT 09/M00 A3001 RMK A01 T00921003  RH  052%=      5-min Rain = 0
KPD4 161512Z 20016KT 09/M00 A3001 RMK A01 T00911003  RH  052%=      5-min Rain = 0
KPD4 161513Z 20014KT 09/M00 A3001 RMK A01 T00911003  RH  052%=      5-min Rain = 0
KPD4 161514Z 20015KT 09/M00 A3001 RMK A01 T00901003  RH  052%=      5-min Rain = 0
KPD4 161515Z 20011KT 09/M00 A3001 RMK A01 T00901003  RH  052%=      5-min Rain = 0
KPD4 161516Z 20011KT 09/M00 A3001 RMK A01 T00911002  RH  052%=      5-min Rain = 0
KPD4 161517Z 20012KT 09/M00 A30 RMK A01 T00931001  RH  052%=      5-min Rain = 0
KPD4 161518Z 20013KT 10/M00 A30 RMK A01 T00951001  RH  051%=      5-min Rain = 0
KPD4 161519Z 20013KT 10/M00 A30 RMK A01 T00951002  RH  051%=      5-min Rain = 0
KPD4 161520Z 20015KT 10/M00 A30 RMK A01 T00961002  RH  051%=      5-min Rain = 0
KPD4 161521Z 20014KT 10/M00 A30 RMK A01 T00951002  RH  051%=      5-min Rain = 0
KPD4 161522Z 21012KT 10/M00 A30 RMK A01 T00951002  RH  051%=      5-min Rain = 0
KPD4 161523Z 21010KT 10/00 A30 RMK A01 T009700-0  RH  051%=      5-min Rain = 0
KPD4 161524Z 21012KT 10/00 A30 RMK A01 T01010001  RH  050%=      5-min Rain = 0
KPD4 161525Z 21013KT 10/00 A30 RMK A01 T010200-0  RH  049%=      5-min Rain = 0
KPD4 161526Z 21015KT 10/M00 A30 RMK A01 T01021001  RH  049%=      5-min Rain = 0
KPD4 161527Z 22014KT 10/M00 A30 RMK A01 T01021001  RH  049%=      5-min Rain = 0
KPD4 161528Z 21013KT 10/00 A30 RMK A01 T010300-0  RH  049%=      5-min Rain = 0
KPD4 161529Z 21014KT 11/00 A30 RMK A01 T010500-0  RH  048%=      5-min Rain = 0
KPD4 161530Z 21015KT 11/M00 A30 RMK A01 T01051001  RH  048%=      5-min Rain = 0
KPD4 161531Z 21014KT 11/M00 A30 RMK A01 T01061001  RH  048%=      5-min Rain = 0
KPD4 161532Z 21015KT 11/M00 A3001 RMK A01 T01071001  RH  047%=      5-min Rain = 0
KPD4 161533Z 21016KT 11/M00 A3001 RMK A01 T01081001  RH  047%=      5-min Rain = 0
KPD4 161534Z 21014KT 11/M00 A3001 RMK A01 T01081001  RH  047%=      5-min Rain = 0
KPD4 161535Z 23015KT 11/M00 A3001 RMK A01 T01091001  RH  047%=      5-min Rain = 0
KPD4 161536Z 22014KT 11/00 A3001 RMK A01 T011000-0  RH  047%=      5-min Rain = 0
KPD4 161537Z 21014KT 11/00 A3001 RMK A01 T011000-0  RH  046%=      5-min Rain = 0
KPD4 161538Z 22015KT 11/00 A3001 RMK A01 T01120000  RH  046%=      5-min Rain = 0
KPD4 161539Z 22014KT 11/00 A3001 RMK A01 T01130000  RH  046%=      5-min Rain = 0
KPD4 161540Z 23014KT 11/00 A3001 RMK A01 T011400-0  RH  045%=      5-min Rain = 0
KPD4 161541Z 22014KT 12/00 A3001 RMK A01 T011500-0  RH  045%=      5-min Rain = 0
KPD4 161542Z 22014KT 12/00 A3001 RMK A01 T011600-0  RH  045%=      5-min Rain = 0
KPD4 161543Z 21014KT 12/00 A3001 RMK A01 T01170001  RH  045%=      5-min Rain = 0
KPD4 161544Z 21015G20KT 12/00 A3001 RMK A01 T01190001  RH  044%=      5-min Rain = 0
KPD4 161545Z 23018KT 12/00 A3001 RMK A01 T01190001  RH  044%=      5-min Rain = 0
KPD4 161546Z 23017KT 12/M00 A30 RMK A01 T01181002  RH  044%=      5-min Rain = 0
KPD4 161547Z 23016KT 12/00 A3001 RMK A01 T011900-0  RH  044%=      5-min Rain = 0
KPD4 161548Z 23020KT 12/00 A3001 RMK A01 T012000-0  RH  044%=      5-min Rain = 0
KPD4 161549Z 22020KT 12/M00 A30 RMK A01 T01191002  RH  043%=      5-min Rain = 0
KPD4 161550Z 23020KT 12/M00 A30 RMK A01 T01191001  RH  044%=      5-min Rain = 0
KPD4 161551Z 23015KT 12/M00 A3001 RMK A01 T01191002  RH  043%=      5-min Rain = 0
KPD4 161552Z 22014KT 12/00 A3001 RMK A01 T01210001  RH  044%=      5-min Rain = 0
KPD4 161553Z 22015KT 13/00 A30 RMK A01 T01250002  RH  043%=      5-min Rain = 0
KPD4 161554Z 22016KT 13/00 A30 RMK A01 T01260001  RH  042%=      5-min Rain = 0
KPD4 161555Z 23017KT 13/M00 A30 RMK A01 T01251001  RH  042%=      5-min Rain = 0
KPD4 161556Z 23016KT 12/M00 A30 RMK A01 T01241001  RH  042%=      5-min Rain = 0
KPD4 161557Z 24017KT 13/M00 A30 RMK A01 T01261001  RH  042%=      5-min Rain = 0
KPD4 161558Z 23018KT 13/M00 A30 RMK A01 T01261001  RH  042%=      5-min Rain = 0
KPD4 161559Z 23020KT 13/M00 A30 RMK A01 T01251002  RH  042%=      5-min Rain = 0
KPD4 161600Z 22019KT 12/M00 A30 RMK A01 T01221003  RH  042%=      5-min Rain = 0
KPD4 161601Z 23018KT 12/M00 A30 RMK A01 T01231001  RH  042%=      5-min Rain = 0
KPD4 161602Z 23017KT 12/M00 A30 RMK A01 T01241001  RH  042%=      5-min Rain = 0
KPD4 161603Z 23017G22KT 13/00 A30 RMK A01 T01270000  RH  042%=      5-min Rain = 0
KPD4 161604Z 23017KT 13/00 A30 RMK A01 T012700-0  RH  041%=      5-min Rain = 0
KPD4 161605Z 23015KT 13/M00 A30 RMK A01 T01271001  RH  041%=      5-min Rain = 0
KPD4 161606Z 22017KT 13/00 A30 RMK A01 T01290001  RH  041%=      5-min Rain = 0
KPD4 161607Z 22018KT 13/M00 A30 RMK A01 T01291001  RH  041%=      5-min Rain = 0
KPD4 161608Z 22017KT 13/M00 A30 RMK A01 T01271002  RH  041%=      5-min Rain = 0
KPD4 161609Z 23016G22KT 13/00 A30 RMK A01 T012800-0  RH  041%=      5-min Rain = 0
KPD4 161610Z 24018KT 13/00 A30 RMK A01 T013000-0  RH  041%=      5-min Rain = 0
KPD4 161611Z 23016KT 13/00 A30 RMK A01 T01310000  RH  041%=      5-min Rain = 0
KPD4 161612Z 23016KT 13/00 A30 RMK A01 T01310000  RH  041%=      5-min Rain = 0
KPD4 161613Z 23015KT 13/00 A30 RMK A01 T01310001  RH  041%=      5-min Rain = 0
KPD4 161614Z 22015KT 13/00 A30 RMK A01 T01310002  RH  041%=      5-min Rain = 0
KPD4 161615Z 22015KT 13/00 A30 RMK A01 T01340002  RH  040%=      5-min Rain = 0
KPD4 161616Z 22014KT 13/00 A30 RMK A01 T01340001  RH  040%=      5-min Rain = 0
KPD4 161617Z 23014KT 14/00 A30 RMK A01 T01350001  RH  040%=      5-min Rain = 0
KPD4 161618Z 23018KT 14/00 A30 RMK A01 T01350000  RH  040%=      5-min Rain = 0
KPD4 161619Z 23017G22KT 13/M00 A30 RMK A01 T01321002  RH  040%=      5-min Rain = 0
KPD4 161620Z 23019KT 13/M00 A30 RMK A01 T01311002  RH  040%=      5-min Rain = 0
KPD4 161621Z 22017KT 13/M00 A30 RMK A01 T01301002  RH  040%=      5-min Rain = 0
KPD4 161622Z 22016KT 13/M00 A30 RMK A01 T01321001  RH  040%=      5-min Rain = 0
KPD4 161623Z 22018KT 13/M00 A30 RMK A01 T01311001  RH  040%=      5-min Rain = 0
KPD4 161624Z 22015KT 13/M00 A30 RMK A01 T01311001  RH  040%=      5-min Rain = 0
KPD4 161625Z 22016KT 13/00 A30 RMK A01 T01330000  RH  040%=      5-min Rain = 0
KPD4 161626Z 22016KT 13/M00 A30 RMK A01 T01341001  RH  040%=      5-min Rain = 0
KPD4 161627Z 22014KT 13/M00 A30 RMK A01 T01331001  RH  040%=      5-min Rain = 0
KPD4 161628Z 22017KT 13/M00 A2999 RMK A01 T01341001  RH  040%=      5-min Rain = 0
KPD4 161629Z 22013KT 13/M00 A2999 RMK A01 T01321002  RH  040%=      5-min Rain = 0
KPD4 161630Z 22014KT 13/00 A2999 RMK A01 T01330001  RH  040%=      5-min Rain = 0
KPD4 161631Z 22016KT 14/00 A2999 RMK A01 T01350000  RH  040%=      5-min Rain = 0
KPD4 161632Z 22015KT 13/M00 A2999 RMK A01 T01331002  RH  039%=      5-min Rain = 0
KPD4 161633Z 21013G18KT 13/00 A30 RMK A01 T01330001  RH  040%=      5-min Rain = 0
KPD4 161634Z 21015KT 14/00 A2999 RMK A01 T01380002  RH  039%=      5-min Rain = 0
KPD4 161635Z 21013KT 14/00 A30 RMK A01 T01380001  RH  039%=      5-min Rain = 0
KPD4 161636Z 22011KT 14/00 A30 RMK A01 T01390000  RH  039%=      5-min Rain = 0
KPD4 161637Z 21015KT 14/00 A2999 RMK A01 T01400002  RH  039%=      5-min Rain = 0
KPD4 161638Z 21015KT 14/00 A2999 RMK A01 T014000-0  RH  038%=      5-min Rain = 0
KPD4 161639Z 21012KT 14/00 A2999 RMK A01 T01380001  RH  039%=      5-min Rain = 0
KPD4 161640Z 20015KT 14/00 A2999 RMK A01 T01420004  RH  039%=      5-min Rain = 0
KPD4 161641Z 20015KT 14/00 A2999 RMK A01 T014200-0  RH  038%=      5-min Rain = 0
KPD4 161642Z 20014KT 14/00 A2999 RMK A01 T01400000  RH  038%=      5-min Rain = 0
KPD4 161643Z 21017KT 14/M00 A2999 RMK A01 T01401001  RH  038%=      5-min Rain = 0
KPD4 161644Z 20016KT 14/M00 A2999 RMK A01 T01411002  RH  037%=      5-min Rain = 0
KPD4 161645Z 19016KT 14/M00 A2999 RMK A01 T01411001  RH  038%=      5-min Rain = 0
KPD4 161646Z 19012G17KT 14/00 A2999 RMK A01 T01420002  RH  038%=      5-min Rain = 0
KPD4 161647Z 19017KT 15/00 A2999 RMK A01 T01450001  RH  037%=      5-min Rain = 0
KPD4 161648Z 19017KT 14/00 A2999 RMK A01 T014400-0  RH  037%=      5-min Rain = 0
KPD4 161649Z 20015KT 14/00 A2999 RMK A01 T01430000  RH  038%=      5-min Rain = 0
KPD4 161650Z 20012KT 14/00 A2999 RMK A01 T01430001  RH  038%=      5-min Rain = 0
KPD4 161651Z 19012KT 15/00 A2999 RMK A01 T01450003  RH  038%=      5-min Rain = 0
KPD4 161652Z 18015KT 15/00 A2999 RMK A01 T01490003  RH  037%=      5-min Rain = 0
KPD4 161653Z 20014KT 15/00 A2999 RMK A01 T01490002  RH  037%=      5-min Rain = 0
KPD4 161654Z 21015KT 15/00 A2999 RMK A01 T01490001  RH  036%=      5-min Rain = 0
KPD4 161655Z 19013G18KT 15/00 A2999 RMK A01 T01480000  RH  036%=      5-min Rain = 0
KPD4 161656Z 20016KT 15/00 A2999 RMK A01 T01480000  RH  036%=      5-min Rain = 0
KPD4 161657Z 21014KT 15/00 A2999 RMK A01 T01480000  RH  036%=      5-min Rain = 0
KPD4 161658Z 20015KT 15/00 A2999 RMK A01 T01480000  RH  036%=      5-min Rain = 0
KPD4 161659Z 20014KT 15/00 A2999 RMK A01 T01470000  RH  037%=      5-min Rain = 0
KPD4 161700Z 20013KT 15/00 A2999 RMK A01 T01470000  RH  037%=      5-min Rain = 0
KPD4 161701Z 21014KT 15/00 A2999 RMK A01 T01480002  RH  037%=      5-min Rain = 0
KPD4 161702Z 20015KT 15/00 A2999 RMK A01 T01490002  RH  037%=      5-min Rain = 0
KPD4 161703Z 20013KT 15/00 A2999 RMK A01 T01490002  RH  037%=      5-min Rain = 0
KPD4 161704Z 20013KT 15/00 A2999 RMK A01 T01510003  RH  037%=      5-min Rain = 0
KPD4 161705Z 20014KT 15/00 A2999 RMK A01 T01540002  RH  036%=      5-min Rain = 0
KPD4 161706Z 21015KT 16/M00 A2999 RMK A01 T01551001  RH  035%=      5-min Rain = 0
KPD4 161707Z 21014KT 16/M00 A2999 RMK A01 T01551001  RH  034%=      5-min Rain = 0
KPD4 161708Z 21014KT 16/M00 A2999 RMK A01 T01561001  RH  034%=      5-min Rain = 0
KPD4 161709Z 20014KT 16/M00 A2999 RMK A01 T01561001  RH  034%=      5-min Rain = 0
KPD4 161710Z 19012G17KT 16/00 A2999 RMK A01 T015500-0  RH  035%=      5-min Rain = 0
KPD4 161711Z 21016KT 16/00 A2999 RMK A01 T015600-0  RH  034%=      5-min Rain = 0
KPD4 161712Z 21015KT 16/M00 A2999 RMK A01 T01561001  RH  034%=      5-min Rain = 0
KPD4 161713Z 21016KT 16/M00 A2999 RMK A01 T01561001  RH  034%=      5-min Rain = 0
KPD4 161714Z 20012KT 16/00 A2999 RMK A01 T01580001  RH  034%=      5-min Rain = 0
KPD4 161715Z 20012G17KT 16/00 A2998 RMK A01 T01600002  RH  034%=      5-min Rain = 0
KPD4 161716Z 20014KT 16/00 A2998 RMK A01 T01620002  RH  034%=      5-min Rain = 0
KPD4 161717Z 20012KT 16/M00 A2998 RMK A01 T01581002  RH  034%=      5-min Rain = 0
KPD4 161718Z 20013KT 16/M00 A2998 RMK A01 T01561001  RH  034%=      5-min Rain = 0
KPD4 161719Z 21013KT 16/00 A2998 RMK A01 T015700-0  RH  034%=      5-min Rain = 0
KPD4 161720Z 21012KT 16/00 A2998 RMK A01 T015600-0  RH  034%=      5-min Rain = 0
KPD4 161721Z 20011KT 16/00 A2998 RMK A01 T01570000  RH  034%=      5-min Rain = 0
KPD4 161722Z 19014KT 16/00 A2998 RMK A01 T01600000  RH  034%=      5-min Rain = 0
KPD4 161723Z 19013KT 16/M00 A2998 RMK A01 T01591001  RH  034%=      5-min Rain = 0
KPD4 161724Z 19015KT 16/00 A2998 RMK A01 T01590000  RH  034%=      5-min Rain = 0
KPD4 161725Z 19014KT 16/M00 A2998 RMK A01 T01601001  RH  033%=      5-min Rain = 0
KPD4 161726Z 20016KT 16/M00 A2998 RMK A01 T01591001  RH  034%=      5-min Rain = 0
KPD4 161727Z 20013KT 16/M00 A2998 RMK A01 T01581002  RH  033%=      5-min Rain = 0
KPD4 161728Z 20013KT 16/00 A2998 RMK A01 T015700-0  RH  034%=      5-min Rain = 0
KPD4 161729Z 20012KT 16/00 A2998 RMK A01 T01590000  RH  034%=      5-min Rain = 0
KPD4 161730Z 22014KT 16/00 A2998 RMK A01 T01630001  RH  033%=      5-min Rain = 0
KPD4 161731Z 23015KT 17/00 A2998 RMK A01 T016600-0  RH  032%=      5-min Rain = 0
KPD4 161732Z 21014KT 17/M00 A2998 RMK A01 T01661001  RH  032%=      5-min Rain = 0
KPD4 161733Z 19013KT 16/M00 A2998 RMK A01 T01641002  RH  032%=      5-min Rain = 0
KPD4 161734Z 19014KT 16/M00 A2998 RMK A01 T01621001  RH  033%=      5-min Rain = 0
KPD4 161735Z 19015KT 16/M00 A2998 RMK A01 T01641002  RH  032%=      5-min Rain = 0
KPD4 161736Z 19015KT 16/M00 A2998 RMK A01 T01641001  RH  032%=      5-min Rain = 0
KPD4 161737Z 21015KT 17/00 A2997 RMK A01 T01650000  RH  033%=      5-min Rain = 0
KPD4 161738Z 20013KT 17/M00 A2997 RMK A01 T01661001  RH  032%=      5-min Rain = 0
KPD4 161739Z 19012KT 17/00 A2997 RMK A01 T01670001  RH  032%=      5-min Rain = 0
KPD4 161740Z 19016KT 17/00 A2997 RMK A01 T01700001  RH  032%=      5-min Rain = 0
KPD4 161741Z 19015KT 17/00 A2997 RMK A01 T017000-0  RH  032%=      5-min Rain = 0
KPD4 161742Z 19016KT 17/M00 A2997 RMK A01 T01691001  RH  032%=      5-min Rain = 0
KPD4 161743Z 19016KT 17/M00 A2997 RMK A01 T01681002  RH  031%=      5-min Rain = 0
KPD4 161744Z 19014KT 17/M00 A2997 RMK A01 T01661001  RH  032%=      5-min Rain = 0
KPD4 161745Z 19015KT 17/M00 A2997 RMK A01 T01671001  RH  032%=      5-min Rain = 0
KPD4 161746Z 19016KT 17/M00 A2997 RMK A01 T01671002  RH  032%=      5-min Rain = 0
KPD4 161747Z 18016KT 17/M00 A2997 RMK A01 T01661002  RH  032%=      5-min Rain = 0
KPD4 161748Z 19015KT 17/M00 A2996 RMK A01 T01651002  RH  032%=      5-min Rain = 0
KPD4 161749Z 19016KT 17/M00 A2996 RMK A01 T01661002  RH  032%=      5-min Rain = 0
KPD4 161750Z 20014KT 17/M00 A2997 RMK A01 T01661002  RH  032%=      5-min Rain = 0
KPD4 161751Z 20013KT 17/00 A2996 RMK A01 T016800-0  RH  032%=      5-min Rain = 0
KPD4 161752Z 19015KT 17/M00 A2996 RMK A01 T01691001  RH  031%=      5-min Rain = 0
KPD4 161753Z 20014KT 17/M00 A2996 RMK A01 T01671002  RH  032%=      5-min Rain = 0
KPD4 161754Z 21016KT 17/M00 A2996 RMK A01 T01691002  RH  031%=      5-min Rain = 0
KPD4 161755Z 20015KT 17/M00 A2996 RMK A01 T01691003  RH  031%=      5-min Rain = 0
KPD4 161756Z 20013KT 17/M00 A2996 RMK A01 T01691003  RH  031%=      5-min Rain = 0
KPD4 161757Z 20013KT 17/M00 A2996 RMK A01 T01701001  RH  031%=      5-min Rain = 0
KPD4 161758Z 21012KT 17/M00 A2996 RMK A01 T01721002  RH  031%=      5-min Rain = 0
KPD4 161759Z 19015KT 17/M00 A2996 RMK A01 T01721002  RH  031%=      5-min Rain = 0
KPD4 161800Z 21015KT 17/M00 A2996 RMK A01 T01731002  RH  031%=      5-min Rain = 0
KPD4 161801Z 21015KT 17/M00 A2996 RMK A01 T01731003  RH  030%=      5-min Rain = 0
KPD4 161802Z 21014KT 17/M00 A2996 RMK A01 T01731003  RH  030%=      5-min Rain = 0
KPD4 161803Z 22016KT 17/M00 A2996 RMK A01 T01721002  RH  031%=      5-min Rain = 0
KPD4 161804Z 21013KT 17/M00 A2996 RMK A01 T01721002  RH  031%=      5-min Rain = 0
KPD4 161805Z 21014KT 17/M00 A2996 RMK A01 T01721002  RH  031%=      5-min Rain = 0
KPD4 161806Z 22014KT 17/M00 A2995 RMK A01 T01721002  RH  031%=      5-min Rain = 0
KPD4 161807Z 22013KT 17/M00 A2996 RMK A01 T01731001  RH  031%=      5-min Rain = 0
KPD4 161808Z 20013KT 18/M00 A2996 RMK A01 T01751002  RH  030%=      5-min Rain = 0
KPD4 161809Z 20012KT 18/M00 A2996 RMK A01 T01761003  RH  030%=      5-min Rain = 0
KPD4 161810Z 21013KT 18/M00 A2996 RMK A01 T01771003  RH  030%=      5-min Rain = 0
KPD4 161811Z 21014KT 18/M00 A2996 RMK A01 T01781004  RH  029%=      5-min Rain = 0
KPD4 161812Z 21013KT 18/M01 A2995 RMK A01 T01781005  RH  029%=      5-min Rain = 0
KPD4 161813Z 21012KT 18/M01 A2995 RMK A01 T01781005  RH  029%=      5-min Rain = 0
KPD4 161814Z 22013KT 18/M01 A2995 RMK A01 T01781005  RH  029%=      5-min Rain = 0
KPD4 161815Z 19012KT 18/M01 A2995 RMK A01 T01781005  RH  029%=      5-min Rain = 0
KPD4 161816Z 19014KT 18/M00 A2995 RMK A01 T01791004  RH  029%=      5-min Rain = 0
KPD4 161817Z 19012KT 18/M00 A2995 RMK A01 T01771004  RH  029%=      5-min Rain = 0
KPD4 161818Z 20011KT 18/M00 A2995 RMK A01 T01761004  RH  030%=      5-min Rain = 0
KPD4 161819Z 21011KT 18/M00 A2995 RMK A01 T01771003  RH  029%=      5-min Rain = 0
KPD4 161820Z 20012KT 18/M00 A2995 RMK A01 T01801003  RH  029%=      5-min Rain = 0
KPD4 161821Z 21014KT 18/M00 A2995 RMK A01 T01831004  RH  028%=      5-min Rain = 0
KPD4 161822Z 21014KT 18/M00 A2995 RMK A01 T01841004  RH  028%=      5-min Rain = 0
KPD4 161823Z 20013KT 18/M00 A2995 RMK A01 T01831004  RH  028%=      5-min Rain = 0
KPD4 161824Z 20012G17KT 19/M00 A2995 RMK A01 T01851003  RH  028%=      5-min Rain = 0
KPD4 161825Z 20016KT 19/M00 A2995 RMK A01 T01881003  RH  027%=      5-min Rain = 0
KPD4 161826Z 20015KT 19/M01 A2995 RMK A01 T01891006  RH  027%=      5-min Rain = 0
KPD4 161827Z 20015G20KT 19/M01 A2994 RMK A01 T01871007  RH  027%=      5-min Rain = 0
KPD4 161828Z 20015KT 19/M01 A2994 RMK A01 T01851007  RH  027%=      5-min Rain = 0
KPD4 161829Z 19014KT 19/M01 A2994 RMK A01 T01861007  RH  027%=      5-min Rain = 0
KPD4 161830Z 19014KT 19/M01 A2994 RMK A01 T01861005  RH  027%=      5-min Rain = 0
KPD4 161831Z 19013KT 19/M00 A2994 RMK A01 T01871004  RH  027%=      5-min Rain = 0
KPD4 161832Z 19016KT 19/M01 A2994 RMK A01 T01871005  RH  027%=      5-min Rain = 0
KPD4 161833Z 19016KT 19/M01 A2994 RMK A01 T01861006  RH  027%=      5-min Rain = 0
KPD4 161834Z 19014KT 19/M01 A2994 RMK A01 T01851006  RH  027%=      5-min Rain = 0
KPD4 161835Z 19016KT 19/M01 A2994 RMK A01 T01871006  RH  027%=      5-min Rain = 0
KPD4 161836Z 21016KT 19/M01 A2994 RMK A01 T01871007  RH  027%=      5-min Rain = 0
KPD4 161837Z 21013KT 19/M01 A2994 RMK A01 T01871007  RH  027%=      5-min Rain = 0
KPD4 161838Z 19015KT 19/M01 A2993 RMK A01 T01881006  RH  027%=      5-min Rain = 0
KPD4 161839Z 19016KT 19/M01 A2993 RMK A01 T01881007  RH  027%=      5-min Rain = 0
KPD4 161840Z 19015KT 19/M01 A2993 RMK A01 T01881007  RH  027%=      5-min Rain = 0
KPD4 161841Z 19015KT 19/M01 A2993 RMK A01 T01861008  RH  027%=      5-min Rain = 0
KPD4 161842Z 19016KT 18/M01 A2993 RMK A01 T01831009  RH  027%=      5-min Rain = 0
KPD4 161843Z 19015KT 18/M01 A2993 RMK A01 T01821009  RH  027%=      5-min Rain = 0
KPD4 161844Z 21013KT 18/M01 A2993 RMK A01 T01811008  RH  028%=      5-min Rain = 0
KPD4 161845Z 20016KT 18/M01 A2993 RMK A01 T01821007  RH  028%=      5-min Rain = 0
KPD4 161846Z 21015KT 18/M01 A2993 RMK A01 T01821009  RH  027%=      5-min Rain = 0
KPD4 161847Z 21014KT 18/M01 A2993 RMK A01 T01831007  RH  028%=      5-min Rain = 0
KPD4 161848Z 22014KT 19/M01 A2993 RMK A01 T01861006  RH  027%=      5-min Rain = 0
KPD4 161849Z 22015KT 19/M01 A2992 RMK A01 T01891008  RH  026%=      5-min Rain = 0
KPD4 161850Z 21015KT 19/M01 A2992 RMK A01 T01901007  RH  026%=      5-min Rain = 0
KPD4 161851Z 21014KT 19/M01 A2992 RMK A01 T01931006  RH  026%=      5-min Rain = 0
KPD4 161852Z 22015KT 20/M01 A2992 RMK A01 T01961007  RH  025%=      5-min Rain = 0
KPD4 161853Z 21014KT 20/M01 A2992 RMK A01 T01951008  RH  025%=      5-min Rain = 0
KPD4 161854Z 21015KT 19/M01 A2992 RMK A01 T01921009  RH  026%=      5-min Rain = 0
KPD4 161855Z 20014KT 19/M01 A2992 RMK A01 T01891009  RH  026%=      5-min Rain = 0
KPD4 161856Z 20012KT 19/M01 A2992 RMK A01 T01891007  RH  027%=      5-min Rain = 0
KPD4 161857Z 19016KT 19/M01 A2991 RMK A01 T01911006  RH  026%=      5-min Rain = 0
KPD4 161858Z 19015KT 19/M01 A2992 RMK A01 T01881009  RH  026%=      5-min Rain = 0
KPD4 161859Z 20015KT 19/M01 A2991 RMK A01 T01861008  RH  027%=      5-min Rain = 0
KPD4 161900Z 20013KT 19/M01 A2991 RMK A01 T01861006  RH  027%=      5-min Rain = 0
KPD4 161901Z 20014KT 19/M00 A2991 RMK A01 T01891004  RH  027%=      5-min Rain = 0
KPD4 161902Z 20015KT 19/M01 A2991 RMK A01 T01931005  RH  026%=      5-min Rain = 0
KPD4 161903Z 21014KT 20/M01 A2991 RMK A01 T01951005  RH  026%=      5-min Rain = 0
KPD4 161904Z 22015KT 20/M01 A2991 RMK A01 T01971006  RH  026%=      5-min Rain = 0
KPD4 161905Z 22014KT 20/M01 A2991 RMK A01 T01961005  RH  026%=      5-min Rain = 0
KPD4 161906Z 23013KT 20/M01 A2991 RMK A01 T01961005  RH  026%=      5-min Rain = 0
KPD4 161907Z 22013KT 20/M01 A2991 RMK A01 T01971005  RH  026%=      5-min Rain = 0
KPD4 161908Z 20012KT 20/M00 A2991 RMK A01 T01991003  RH  026%=      5-min Rain = 0
KPD4 161909Z 19011KT 20/M00 A2991 RMK A01 T02011002  RH  026%=      5-min Rain = 0
KPD4 161910Z 21011KT 20/M00 A2992 RMK A01 T02031001  RH  025%=      5-min Rain = 0
KPD4 161911Z 22012G18KT 20/M00 A2992 RMK A01 T02041003  RH  025%=      5-min Rain = 0
KPD4 161912Z 22012KT 21/M00 A2992 RMK A01 T02051003  RH  025%=      5-min Rain = 0
KPD4 161913Z 23010KT 20/M01 A2992 RMK A01 T02041005  RH  025%=      5-min Rain = 0
KPD4 161914Z 22012KT 20/M01 A2991 RMK A01 T02031006  RH  025%=      5-min Rain = 0
KPD4 161915Z 20012KT 20/M00 A2991 RMK A01 T02041004  RH  025%=      5-min Rain = 0
KPD4 161916Z 20013KT 20/M00 A2991 RMK A01 T02041003  RH  025%=      5-min Rain = 0
KPD4 161917Z 19013KT 20/M00 A2991 RMK A01 T02041003  RH  025%=      5-min Rain = 0
KPD4 161918Z 20008KT 20/M01 A2991 RMK A01 T02021005  RH  025%=      5-min Rain = 0
KPD4 161919Z 22013KT 20/M00 A2991 RMK A01 T02031003  RH  025%=      5-min Rain = 0
KPD4 161920Z 21014KT 21/M01 A2991 RMK A01 T02061006  RH  024%=      5-min Rain = 0
KPD4 161921Z 21011KT 21/M01 A2991 RMK A01 T02061006  RH  024%=      5-min Rain = 0
KPD4 161922Z 23010KT 21/M01 A2991 RMK A01 T02061005  RH  024%=      5-min Rain = 0
KPD4 161923Z 22015KT 21/M01 A2991 RMK A01 T02071007  RH  024%=      5-min Rain = 0
KPD4 161924Z 22015KT 21/M01 A2991 RMK A01 T02061010  RH  023%=      5-min Rain = 0
KPD4 161925Z 23016KT 21/M01 A2991 RMK A01 T02061009  RH  024%=      5-min Rain = 0
KPD4 161926Z 22014KT 21/M01 A2991 RMK A01 T02051009  RH  024%=      5-min Rain = 0
KPD4 161927Z 22014KT 21/M01 A2991 RMK A01 T02051009  RH  024%=      5-min Rain = 0
KPD4 161928Z 22012KT 21/M01 A2991 RMK A01 T02061008  RH  024%=      5-min Rain = 0
KPD4 161929Z 22014KT 21/M01 A2991 RMK A01 T02081009  RH  023%=      5-min Rain = 0
KPD4 161930Z 22014KT 21/M01 A2991 RMK A01 T02081009  RH  023%=      5-min Rain = 0
KPD4 161931Z 23015KT 21/M01 A2991 RMK A01 T02071010  RH  023%=      5-min Rain = 0
KPD4 161932Z 23015KT 21/M01 A2991 RMK A01 T02081010  RH  023%=      5-min Rain = 0
KPD4 161933Z 22013KT 21/M01 A2991 RMK A01 T02081010  RH  023%=      5-min Rain = 0
KPD4 161934Z 22015KT 21/M01 A2991 RMK A01 T02091010  RH  023%=      5-min Rain = 0
KPD4 161935Z 23014KT 21/M01 A2991 RMK A01 T02071011  RH  023%=      5-min Rain = 0
KPD4 161936Z 21011KT 21/M01 A2991 RMK A01 T02051010  RH  024%=      5-min Rain = 0
KPD4 161937Z 22012KT 21/M01 A2991 RMK A01 T02061008  RH  024%=      5-min Rain = 0
KPD4 161938Z 23013KT 21/M01 A2991 RMK A01 T02071008  RH  023%=      5-min Rain = 0
KPD4 161939Z 24012KT 21/M01 A2991 RMK A01 T02081009  RH  023%=      5-min Rain = 0
KPD4 161940Z 24013KT 21/M01 A2991 RMK A01 T02091010  RH  023%=      5-min Rain = 0
KPD4 161941Z 23014KT 21/M01 A2991 RMK A01 T02081010  RH  023%=      5-min Rain = 0
KPD4 161942Z 23012KT 21/M01 A2991 RMK A01 T02081010  RH  023%=      5-min Rain = 0
KPD4 161943Z 23011KT 21/M01 A2991 RMK A01 T02081010  RH  023%=      5-min Rain = 0
KPD4 161944Z 22012KT 21/M01 A2991 RMK A01 T02091009  RH  023%=      5-min Rain = 0
KPD4 161945Z 22013KT 21/M01 A2991 RMK A01 T02121007  RH  023%=      5-min Rain = 0
KPD4 161946Z 22013KT 21/M01 A2991 RMK A01 T02131010  RH  022%=      5-min Rain = 0
KPD4 161947Z 22013KT 21/M01 A2991 RMK A01 T02121012  RH  022%=      5-min Rain = 0
KPD4 161948Z 21012KT 21/M01 A299 RMK A01 T02101013  RH  022%=      5-min Rain = 0
KPD4 161949Z 22014KT 21/M01 A299 RMK A01 T02091012  RH  023%=      5-min Rain = 0
KPD4 161950Z 24013KT 21/M01 A299 RMK A01 T02111011  RH  023%=      5-min Rain = 0
KPD4 161951Z 24013KT 21/M01 A299 RMK A01 T02121012  RH  022%=      5-min Rain = 0
KPD4 161952Z 24013KT 21/M01 A299 RMK A01 T02121012  RH  022%=      5-min Rain = 0
KPD4 161953Z 23013KT 21/M01 A299 RMK A01 T02121012  RH  022%=      5-min Rain = 0
KPD4 161954Z 23012KT 21/M01 A299 RMK A01 T02131011  RH  022%=      5-min Rain = 0
KPD4 161955Z 22013KT 21/M01 A299 RMK A01 T02131011  RH  022%=      5-min Rain = 0
KPD4 161956Z 24014KT 21/M01 A299 RMK A01 T02141012  RH  022%=      5-min Rain = 0
KPD4 161957Z 24012KT 21/M01 A299 RMK A01 T02141012  RH  022%=      5-min Rain = 0
KPD4 161958Z 24014KT 22/M01 A299 RMK A01 T02171010  RH  022%=      5-min Rain = 0
KPD4 161959Z 23013KT 22/M01 A299 RMK A01 T02171010  RH  022%=      5-min Rain = 0
KPD4 162000Z 23013KT 22/M01 A299 RMK A01 T02171009  RH  022%=      5-min Rain = 0
KPD4 162001Z 23012KT 22/M01 A299 RMK A01 T02161009  RH  022%=      5-min Rain = 0
KPD4 162002Z 22011KT 22/M01 A299 RMK A01 T02161009  RH  022%=      5-min Rain = 0
KPD4 162003Z 23009KT 22/M01 A299 RMK A01 T02161008  RH  022%=      5-min Rain = 0
KPD4 162004Z 24012KT 22/M01 A299 RMK A01 T02191006  RH  022%=      5-min Rain = 0
KPD4 162005Z 25012KT 22/M01 A299 RMK A01 T02211008  RH  022%=      5-min Rain = 0
KPD4 162006Z 23012KT 22/M01 A299 RMK A01 T02191009  RH  022%=      5-min Rain = 0
KPD4 162007Z 23009KT 22/M01 A299 RMK A01 T02171011  RH  022%=      5-min Rain = 0
KPD4 162008Z 23011KT 22/M01 A299 RMK A01 T02171009  RH  022%=      5-min Rain = 0
KPD4 162009Z 21009KT 22/M01 A299 RMK A01 T02161010  RH  022%=      5-min Rain = 0
KPD4 162010Z 24010KT 22/M01 A299 RMK A01 T02161008  RH  022%=      5-min Rain = 0
KPD4 162011Z 23013KT 22/M01 A299 RMK A01 T02181007  RH  022%=      5-min Rain = 0
KPD4 162012Z 23012G18KT 22/M01 A299 RMK A01 T02211007  RH  022%=      5-min Rain = 0
KPD4 162013Z 23014G19KT 22/M01 A299 RMK A01 T02221007  RH  022%=      5-min Rain = 0
KPD4 162014Z 22013KT 22/M01 A299 RMK A01 T02221007  RH  022%=      5-min Rain = 0
KPD4 162015Z 23011KT 22/M01 A299 RMK A01 T02231006  RH  022%=      5-min Rain = 0
KPD4 162016Z 23009KT 22/M01 A299 RMK A01 T02241007  RH  021%=      5-min Rain = 0
KPD4 162017Z 21010KT 22/M01 A299 RMK A01 T02241007  RH  021%=      5-min Rain = 0
KPD4 162018Z 19011KT 22/M01 A299 RMK A01 T02241009  RH  021%=      5-min Rain = 0
KPD4 162019Z 20009KT 22/M01 A299 RMK A01 T02231010  RH  021%=      5-min Rain = 0
KPD4 162020Z 22013KT 22/M01 A299 RMK A01 T02241007  RH  021%=      5-min Rain = 0
KPD4 162021Z 24013KT 23/M01 A299 RMK A01 T02281006  RH  021%=      5-min Rain = 0
KPD4 162022Z 25010KT 23/M01 A299 RMK A01 T02261008  RH  021%=      5-min Rain = 0
KPD4 162023Z 23007KT 22/M01 A2989 RMK A01 T02231008  RH  021%=      5-min Rain = 0
KPD4 162024Z 23009KT 22/M01 A2989 RMK A01 T02241007  RH  021%=      5-min Rain = 0
KPD4 162025Z 23010KT 22/M01 A2989 RMK A01 T02241008  RH  021%=      5-min Rain = 0
KPD4 162026Z 22008KT 22/M01 A2989 RMK A01 T02221008  RH  021%=      5-min Rain = 0
KPD4 162027Z 21009KT 22/M01 A2989 RMK A01 T02241005  RH  022%=      5-min Rain = 0
KPD4 162028Z 22011KT 23/M00 A2989 RMK A01 T02311003  RH  021%=      5-min Rain = 0
KPD4 162029Z 22011KT 23/M01 A2989 RMK A01 T02301006  RH  021%=      5-min Rain = 0
KPD4 162030Z 23011KT 23/M01 A2989 RMK A01 T02271007  RH  021%=      5-min Rain = 0
KPD4 162031Z 22009KT 23/M01 A2989 RMK A01 T02271007  RH  021%=      5-min Rain = 0
KPD4 162032Z 20006KT 23/M01 A2989 RMK A01 T02251008  RH  021%=      5-min Rain = 0
KPD4 162033Z 20007KT 23/M01 A2989 RMK A01 T02251006  RH  021%=      5-min Rain = 0
KPD4 162034Z 20013KT 23/M01 A2989 RMK A01 T02291005  RH  021%=      5-min Rain = 0
KPD4 162035Z 20014KT 23/M01 A2989 RMK A01 T02311009  RH  020%=      5-min Rain = 0
KPD4 162036Z 20011KT 23/M01 A2989 RMK A01 T02271010  RH  021%=      5-min Rain = 0
KPD4 162037Z 22011KT 23/M01 A2989 RMK A01 T02261008  RH  021%=      5-min Rain = 0
KPD4 162038Z 23009KT 23/M01 A2989 RMK A01 T02281008  RH  021%=      5-min Rain = 0
KPD4 162039Z 22012KT 23/M01 A2989 RMK A01 T02261010  RH  021%=      5-min Rain = 0
KPD4 162040Z 21011KT 23/M01 A2989 RMK A01 T02261012  RH  020%=      5-min Rain = 0
KPD4 162041Z 22008G14KT 23/M01 A2989 RMK A01 T02251011  RH  021%=      5-min Rain = 0
KPD4 162042Z 21011KT 22/M01 A2989 RMK A01 T02241011  RH  021%=      5-min Rain = 0
KPD4 162043Z 22007KT 22/M01 A2989 RMK A01 T02241011  RH  021%=      5-min Rain = 0
KPD4 162044Z 22009KT 23/M01 A2989 RMK A01 T02251009  RH  021%=      5-min Rain = 0
KPD4 162045Z 22007KT 23/M01 A2989 RMK A01 T02271009  RH  021%=      5-min Rain = 0
KPD4 162046Z 21012KT 23/M01 A2989 RMK A01 T02271009  RH  021%=      5-min Rain = 0
KPD4 162047Z 20010KT 23/M01 A2989 RMK A01 T02251012  RH  021%=      5-min Rain = 0
KPD4 162048Z 21009KT 22/M01 A2989 RMK A01 T02221012  RH  021%=      5-min Rain = 0
KPD4 162049Z 20009KT 22/M01 A2989 RMK A01 T02221011  RH  021%=      5-min Rain = 0
KPD4 162050Z 19009KT 22/M01 A2989 RMK A01 T02231012  RH  021%=      5-min Rain = 0
KPD4 162051Z 20010KT 23/M01 A2989 RMK A01 T02251011  RH  021%=      5-min Rain = 0
KPD4 162052Z 20011KT 23/M01 A2989 RMK A01 T02271010  RH  021%=      5-min Rain = 0
KPD4 162053Z 22010KT 23/M01 A2989 RMK A01 T02281010  RH  020%=      5-min Rain = 0
KPD4 162054Z 22011KT 23/M01 A2989 RMK A01 T02301009  RH  020%=      5-min Rain = 0
KPD4 162055Z 22010KT 23/M01 A2989 RMK A01 T02301009  RH  020%=      5-min Rain = 0
KPD4 162056Z 23009KT 23/M01 A2989 RMK A01 T02281010  RH  021%=      5-min Rain = 0
KPD4 162057Z 24008KT 23/M01 A2989 RMK A01 T02271009  RH  021%=      5-min Rain = 0
KPD4 162058Z 26005KT 23/M01 A2989 RMK A01 T02251011  RH  021%=      5-min Rain = 0
KPD4 162059Z 21009G14KT 22/M01 A2989 RMK A01 T02241010  RH  021%=      5-min Rain = 0
KPD4 162100Z 19009KT 23/M01 A2989 RMK A01 T02261008  RH  021%=      5-min Rain = 0
KPD4 162101Z 20009KT 23/M01 A2988 RMK A01 T02271010  RH  021%=      5-min Rain = 0
KPD4 162102Z 21010KT 22/M01 A2988 RMK A01 T02241011  RH  021%=      5-min Rain = 0
KPD4 162103Z 23007KT 22/M01 A2988 RMK A01 T02231011  RH  021%=      5-min Rain = 0
KPD4 162104Z 24010KT 22/M01 A2988 RMK A01 T02241011  RH  021%=      5-min Rain = 0
KPD4 162105Z 24008KT 23/M01 A2989 RMK A01 T02251012  RH  021%=      5-min Rain = 0
KPD4 162106Z 21009KT 22/M01 A2989 RMK A01 T02241012  RH  021%=      5-min Rain = 0
KPD4 162107Z 21009KT 22/M01 A2989 RMK A01 T02241011  RH  021%=      5-min Rain = 0
KPD4 162108Z 20009KT 22/M01 A2989 RMK A01 T02241012  RH  021%=      5-min Rain = 0
KPD4 162109Z 20008KT 22/M01 A2989 RMK A01 T02241012  RH  021%=      5-min Rain = 0
KPD4 162110Z 23009KT 23/M01 A2989 RMK A01 T02261010  RH  021%=      5-min Rain = 0
KPD4 162111Z 22008KT 23/M01 A2989 RMK A01 T02271009  RH  021%=      5-min Rain = 0
KPD4 162112Z 21008KT 23/M01 A2989 RMK A01 T02281010  RH  020%=      5-min Rain = 0
KPD4 162113Z 22008KT 23/M01 A2989 RMK A01 T02271012  RH  020%=      5-min Rain = 0
KPD4 162114Z 23008KT 23/M01 A2989 RMK A01 T02261013  RH  020%=      5-min Rain = 0
KPD4 162115Z 24007KT 23/M01 A2989 RMK A01 T02261013  RH  020%=      5-min Rain = 0
KPD4 162116Z 24006KT 23/M01 A2989 RMK A01 T02251013  RH  020%=      5-min Rain = 0
KPD4 162117Z 21007KT 22/M01 A2989 RMK A01 T02241012  RH  021%=      5-min Rain = 0
KPD4 162118Z 22010KT 23/M01 A2989 RMK A01 T02251013  RH  021%=      5-min Rain = 0
KPD4 162119Z 21009KT 22/M01 A2989 RMK A01 T02241013  RH  020%=      5-min Rain = 0
KPD4 162120Z 21009KT 23/M01 A2989 RMK A01 T02251011  RH  021%=      5-min Rain = 0
KPD4 162121Z 22008KT 23/M01 A2989 RMK A01 T02261010  RH  021%=      5-min Rain = 0
KPD4 162122Z 23009KT 23/M01 A2989 RMK A01 T02281012  RH  020%=      5-min Rain = 0
KPD4 162123Z 23008KT 23/M01 A2989 RMK A01 T02261013  RH  020%=      5-min Rain = 0
KPD4 162124Z 24007KT 22/M02 A2989 RMK A01 T02241015  RH  020%=      5-min Rain = 0
KPD4 162125Z 24008KT 22/M01 A2989 RMK A01 T02221014  RH  021%=      5-min Rain = 0
KPD4 162126Z 24008KT 22/M01 A2989 RMK A01 T02211014  RH  021%=      5-min Rain = 0
KPD4 162127Z 23008KT 22/M02 A2989 RMK A01 T02181015  RH  021%=      5-min Rain = 0
KPD4 162128Z 21009KT 22/M01 A2989 RMK A01 T02161014  RH  021%=      5-min Rain = 0
KPD4 162129Z 23009KT 22/M01 A2989 RMK A01 T02151013  RH  022%=      5-min Rain = 0
KPD4 162130Z 24008KT 21/M01 A2989 RMK A01 T02141013  RH  022%=      5-min Rain = 0
KPD4 162131Z 23009KT 21/M01 A2989 RMK A01 T02141013  RH  022%=      5-min Rain = 0
KPD4 162132Z 23008KT 21/M01 A2989 RMK A01 T02141012  RH  022%=      5-min Rain = 0
KPD4 162133Z 22007KT 21/M01 A2989 RMK A01 T02141012  RH  022%=      5-min Rain = 0
KPD4 162134Z 22009KT 21/M01 A2989 RMK A01 T02131012  RH  022%=      5-min Rain = 0
KPD4 162135Z 21007KT 21/M01 A2989 RMK A01 T02131012  RH  022%=      5-min Rain = 0
KPD4 162136Z 21008KT 21/M01 A2989 RMK A01 T02121012  RH  022%=      5-min Rain = 0
KPD4 162137Z 22008KT 21/M01 A2989 RMK A01 T02121011  RH  022%=      5-min Rain = 0
KPD4 162138Z 21007KT 21/M01 A2988 RMK A01 T02111011  RH  022%=      5-min Rain = 0
KPD4 162139Z 23006KT 21/M01 A2988 RMK A01 T02111011  RH  023%=      5-min Rain = 0
KPD4 162140Z 23005KT 21/M01 A2988 RMK A01 T02111011  RH  023%=      5-min Rain = 0
KPD4 162141Z 24005KT 21/M01 A2988 RMK A01 T02111010  RH  023%=      5-min Rain = 0
KPD4 162142Z 23005KT 21/M01 A2988 RMK A01 T02111010  RH  023%=      5-min Rain = 0
KPD4 162143Z 24005KT 21/M01 A2988 RMK A01 T02111010  RH  023%=      5-min Rain = 0
KPD4 162144Z 24005KT 21/M01 A2988 RMK A01 T02111010  RH  023%=      5-min Rain = 0
KPD4 162145Z 24005KT 21/M01 A2988 RMK A01 T02111010  RH  023%=      5-min Rain = 0
KPD4 162146Z 24006KT 21/M01 A2988 RMK A01 T02111010  RH  023%=      5-min Rain = 0
KPD4 162147Z 23005KT 21/M01 A2989 RMK A01 T02111010  RH  023%=      5-min Rain = 0
KPD4 162148Z 24005KT 21/M01 A2989 RMK A01 T02111009  RH  023%=      5-min Rain = 0
KPD4 162149Z 24004KT 21/M01 A2989 RMK A01 T02111009  RH  023%=      5-min Rain = 0
KPD4 162150Z 24004KT 21/M01 A2989 RMK A01 T02121009  RH  023%=      5-min Rain = 0
KPD4 162151Z 24004KT 21/M01 A2989 RMK A01 T02121009  RH  023%=      5-min Rain = 0
KPD4 162152Z 24004KT 21/M01 A2989 RMK A01 T02121009  RH  023%=      5-min Rain = 0
KPD4 162153Z 24005KT 21/M01 A2989 RMK A01 T02121009  RH  023%=      5-min Rain = 0
KPD4 162154Z 23004KT 21/M01 A2989 RMK A01 T02121010  RH  023%=      5-min Rain = 0
KPD4 162155Z 22004KT 21/M01 A2989 RMK A01 T02121010  RH  023%=      5-min Rain = 0
KPD4 162156Z 22004KT 21/M01 A2989 RMK A01 T02121010  RH  023%=      5-min Rain = 0
KPD4 162157Z 22005KT 21/M01 A2989 RMK A01 T02121010  RH  023%=      5-min Rain = 0
KPD4 162158Z 21006KT 21/M01 A2989 RMK A01 T02131012  RH  022%=      5-min Rain = 0
KPD4 162159Z 21004KT 21/M01 A2989 RMK A01 T02131012  RH  022%=      5-min Rain = 0
KPD4 162200Z 19006KT 21/M01 A2989 RMK A01 T02131012  RH  022%=      5-min Rain = 0
KPD4 162201Z 20008KT 21/M01 A2989 RMK A01 T02131014  RH  022%=      5-min Rain = 0
KPD4 162202Z 20007KT 21/M01 A2989 RMK A01 T02131014  RH  022%=      5-min Rain = 0
KPD4 162203Z 20005KT 21/M01 A2989 RMK A01 T02121014  RH  022%=      5-min Rain = 0
KPD4 162204Z 20007KT 21/M01 A2989 RMK A01 T02121014  RH  022%=      5-min Rain = 0
KPD4 162205Z 20006KT 21/M02 A2989 RMK A01 T02121015  RH  022%=      5-min Rain = 0
KPD4 162206Z 20006KT 21/M02 A2989 RMK A01 T02111016  RH  022%=      5-min Rain = 0
KPD4 162207Z 20005KT 21/M02 A2989 RMK A01 T02111015  RH  022%=      5-min Rain = 0
KPD4 162208Z 21006KT 21/M02 A2989 RMK A01 T02101015  RH  022%=      5-min Rain = 0
KPD4 162209Z 21006KT 21/M01 A2989 RMK A01 T02101014  RH  022%=      5-min Rain = 0
KPD4 162210Z 21006KT 21/M02 A2989 RMK A01 T02091015  RH  022%=      5-min Rain = 0
KPD4 162211Z 21006KT 21/M02 A2989 RMK A01 T02091016  RH  022%=      5-min Rain = 0
KPD4 162212Z 21006KT 21/M02 A2989 RMK A01 T02091016  RH  022%=      5-min Rain = 0
KPD4 162213Z 21006KT 21/M02 A2989 RMK A01 T02091015  RH  022%=      5-min Rain = 0
KPD4 162214Z 21006KT 21/M02 A2989 RMK A01 T02081015  RH  022%=      5-min Rain = 0
KPD4 162215Z 21005KT 21/M02 A2989 RMK A01 T02081015  RH  022%=      5-min Rain = 0
KPD4 162216Z 21005KT 21/M01 A2989 RMK A01 T02081014  RH  022%=      5-min Rain = 0
KPD4 162217Z 21005KT 21/M01 A2989 RMK A01 T02081014  RH  022%=      5-min Rain = 0
KPD4 162218Z 21005KT 21/M01 A2989 RMK A01 T02081014  RH  022%=      5-min Rain = 0
KPD4 162219Z 21005KT 21/M01 A2989 RMK A01 T02081014  RH  023%=      5-min Rain = 0
KPD4 162220Z 21006KT 21/M01 A2989 RMK A01 T02071014  RH  023%=      5-min Rain = 0
KPD4 162221Z 21005KT 21/M01 A2989 RMK A01 T02071014  RH  023%=      5-min Rain = 0
KPD4 162222Z 21006KT 21/M01 A2989 RMK A01 T02071014  RH  023%=      5-min Rain = 0
KPD4 162223Z 21006KT 21/M02 A2989 RMK A01 T02071015  RH  023%=      5-min Rain = 0
KPD4 162224Z 22005KT 21/M01 A2989 RMK A01 T02061014  RH  023%=      5-min Rain = 0
KPD4 162225Z 22005KT 21/M01 A2989 RMK A01 T02061014  RH  023%=      5-min Rain = 0
KPD4 162226Z 22005KT 21/M01 A2989 RMK A01 T02061014  RH  023%=      5-min Rain = 0
KPD4 162227Z 22005KT 21/M02 A2989 RMK A01 T02061015  RH  023%=      5-min Rain = 0
KPD4 162228Z 22005KT 21/M02 A2989 RMK A01 T02061015  RH  023%=      5-min Rain = 0
KPD4 162229Z 23004KT 21/M02 A2989 RMK A01 T02051015  RH  023%=      5-min Rain = 0
KPD4 162230Z 23004KT 21/M01 A2989 RMK A01 T02051014  RH  023%=      5-min Rain = 0
KPD4 162231Z 24004KT 21/M01 A2989 RMK A01 T02051014  RH  023%=      5-min Rain = 0
KPD4 162232Z 23003KT 21/M01 A2989 RMK A01 T02051014  RH  023%=      5-min Rain = 0
KPD4 162233Z 23003KT 20/M01 A2989 RMK A01 T02041014  RH  023%=      5-min Rain = 0
KPD4 162234Z 24003KT 20/M01 A2989 RMK A01 T02041014  RH  023%=      5-min Rain = 0
KPD4 162235Z 24003KT 20/M01 A2989 RMK A01 T02041014  RH  023%=      5-min Rain = 0
KPD4 162236Z 25002KT 20/M01 A2989 RMK A01 T02031013  RH  023%=      5-min Rain = 0
KPD4 162237Z 23003KT 20/M01 A2989 RMK A01 T02031013  RH  023%=      5-min Rain = 0
KPD4 162238Z 24002KT 20/M01 A2989 RMK A01 T02031013  RH  023%=      5-min Rain = 0
KPD4 162239Z 25002KT 20/M01 A2989 RMK A01 T02021012  RH  024%=      5-min Rain = 0
KPD4 162240Z 24002KT 20/M01 A2989 RMK A01 T02021010  RH  024%=      5-min Rain = 0
KPD4 162241Z 24002KT 20/M01 A2989 RMK A01 T02011009  RH  024%=      5-min Rain = 0
KPD4 162242Z 24002KT 20/M01 A2989 RMK A01 T02001008  RH  025%=      5-min Rain = 0
KPD4 162243Z 24003KT 20/M01 A2989 RMK A01 T02001008  RH  025%=      5-min Rain = 0
KPD4 162244Z 25002KT 20/M01 A2989 RMK A01 T01991007  RH  025%=      5-min Rain = 0
KPD4 162245Z 25003KT 20/M01 A2989 RMK A01 T01991006  RH  025%=      5-min Rain = 0
KPD4 162246Z 26003KT 20/M01 A2989 RMK A01 T01991006  RH  025%=      5-min Rain = 0
KPD4 162247Z 25003KT 20/M01 A2989 RMK A01 T01981006  RH  025%=      5-min Rain = 0
KPD4 162248Z 25003KT 20/M01 A2989 RMK A01 T01971006  RH  025%=      5-min Rain = 0
KPD4 162249Z 25003KT 20/M01 A2989 RMK A01 T01971006  RH  025%=      5-min Rain = 0
KPD4 162250Z 24003KT 20/M01 A2989 RMK A01 T01961006  RH  026%=      5-min Rain = 0
KPD4 162251Z 25003KT 20/M01 A2989 RMK A01 T01951007  RH  026%=      5-min Rain = 0
KPD4 162252Z 24003KT 20/M01 A2989 RMK A01 T01951007  RH  026%=      5-min Rain = 0
KPD4 162253Z 24003KT 19/M01 A299 RMK A01 T01941007  RH  026%=      5-min Rain = 0
KPD4 162254Z 24003KT 19/M01 A299 RMK A01 T01931008  RH  026%=      5-min Rain = 0
KPD4 162255Z 24004KT 19/M01 A299 RMK A01 T01931008  RH  026%=      5-min Rain = 0
KPD4 162256Z 24004KT 19/M01 A299 RMK A01 T01921008  RH  026%=      5-min Rain = 0
KPD4 162257Z 23004KT 19/M01 A299 RMK A01 T01911008  RH  026%=      5-min Rain = 0
KPD4 162258Z 24004KT 19/M01 A299 RMK A01 T01911009  RH  026%=      5-min Rain = 0
KPD4 162259Z 23004KT 19/M01 A299 RMK A01 T01901009  RH  026%=      5-min Rain = 0
KPD4 162300Z 23003KT 19/M01 A299 RMK A01 T01901010  RH  026%=      5-min Rain = 0
KPD4 162301Z 23003KT 19/M01 A299 RMK A01 T01891010  RH  026%=      5-min Rain = 0
KPD4 162302Z 22003KT 19/M01 A299 RMK A01 T01881010  RH  026%=      5-min Rain = 0
KPD4 162303Z 22003KT 19/M01 A299 RMK A01 T01861011  RH  026%=      5-min Rain = 0
KPD4 162304Z 22003KT 19/M01 A299 RMK A01 T01851011  RH  026%=      5-min Rain = 0
KPD4 162305Z 22003KT 19/M01 A299 RMK A01 T01851011  RH  026%=      5-min Rain = 0
KPD4 162306Z 22003KT 19/M01 A299 RMK A01 T01851012  RH  026%=      5-min Rain = 0
KPD4 162307Z 22002KT 19/M01 A299 RMK A01 T01851012  RH  026%=      5-min Rain = 0
KPD4 162308Z 22002KT 19/M01 A299 RMK A01 T01861011  RH  026%=      5-min Rain = 0
KPD4 162309Z 22002KT 19/M01 A299 RMK A01 T01851011  RH  027%=      5-min Rain = 0
KPD4 162310Z 22003KT 19/M01 A299 RMK A01 T01851011  RH  027%=      5-min Rain = 0
KPD4 162311Z 22003KT 19/M01 A299 RMK A01 T01851011  RH  027%=      5-min Rain = 0
KPD4 162312Z 21003KT 18/M01 A299 RMK A01 T01841011  RH  027%=      5-min Rain = 0
KPD4 162313Z 18003KT 18/M01 A299 RMK A01 T01841011  RH  027%=      5-min Rain = 0
KPD4 162314Z 13005KT 18/M01 A299 RMK A01 T01841012  RH  027%=      5-min Rain = 0
KPD4 162315Z 14009KT 18/M01 A299 RMK A01 T01821008  RH  028%=      5-min Rain = 0
KPD4 162316Z 15008KT 18/M00 A299 RMK A01 T01781001  RH  030%=      5-min Rain = 0
KPD4 162317Z 16007KT 18/00 A299 RMK A01 T01750001  RH  031%=      5-min Rain = 0
KPD4 162318Z 16007KT 17/00 A299 RMK A01 T01720002  RH  031%=      5-min Rain = 0
KPD4 162319Z 15006KT 17/00 A299 RMK A01 T01710003  RH  032%=      5-min Rain = 0
KPD4 162320Z 16007KT 17/00 A299 RMK A01 T01700003  RH  032%=      5-min Rain = 0
KPD4 162321Z 17009KT 17/00 A299 RMK A01 T01670004  RH  033%=      5-min Rain = 0
KPD4 162322Z 17008KT 17/01 A299 RMK A01 T01650007  RH  034%=      5-min Rain = 0
KPD4 162323Z 17008KT 17/01 A299 RMK A01 T01650007  RH  034%=      5-min Rain = 0
KPD4 162324Z 17008KT 16/01 A299 RMK A01 T01630006  RH  035%=      5-min Rain = 0
KPD4 162325Z 17008KT 16/01 A299 RMK A01 T01620007  RH  035%=      5-min Rain = 0
KPD4 162326Z 17008KT 16/01 A299 RMK A01 T01610008  RH  035%=      5-min Rain = 0
KPD4 162327Z 17007KT 16/01 A299 RMK A01 T01610008  RH  035%=      5-min Rain = 0
KPD4 162328Z 17007KT 16/01 A299 RMK A01 T01600008  RH  036%=      5-min Rain = 0
KPD4 162329Z 17006KT 16/01 A299 RMK A01 T01590008  RH  036%=      5-min Rain = 0
KPD4 162330Z 18007KT 16/01 A2991 RMK A01 T01580008  RH  036%=      5-min Rain = 0
KPD4 162331Z 18006KT 16/01 A2991 RMK A01 T01570008  RH  036%=      5-min Rain = 0
KPD4 162332Z 19005KT 16/01 A2991 RMK A01 T01560008  RH  036%=      5-min Rain = 0
KPD4 162333Z 20004KT 16/01 A2991 RMK A01 T01560008  RH  037%=      5-min Rain = 0
KPD4 162334Z 19005KT 16/01 A2991 RMK A01 T01550007  RH  037%=      5-min Rain = 0
KPD4 162335Z 18005KT 16/01 A2991 RMK A01 T01550007  RH  037%=      5-min Rain = 0
KPD4 162336Z 19005KT 15/01 A2991 RMK A01 T01540007  RH  037%=      5-min Rain = 0
KPD4 162337Z 19004KT 16/01 A2991 RMK A01 T01550009  RH  037%=      5-min Rain = 0
KPD4 162338Z 18006KT 16/01 A2991 RMK A01 T01560009  RH  037%=      5-min Rain = 0
KPD4 162339Z 19007KT 16/01 A2991 RMK A01 T01560010  RH  037%=      5-min Rain = 0
KPD4 162340Z 18006KT 16/01 A2991 RMK A01 T01580010  RH  037%=      5-min Rain = 0
KPD4 162341Z 19004KT 16/01 A2991 RMK A01 T01590010  RH  036%=      5-min Rain = 0
KPD4 162342Z 18007KT 16/01 A2991 RMK A01 T01590009  RH  036%=      5-min Rain = 0
KPD4 162343Z 18006KT 16/01 A2991 RMK A01 T01580010  RH  037%=      5-min Rain = 0
KPD4 162344Z 19006KT 16/01 A2991 RMK A01 T01570009  RH  037%=      5-min Rain = 0
KPD4 162345Z 19005KT 16/01 A2991 RMK A01 T01560009  RH  037%=      5-min Rain = 0
KPD4 162346Z 19006KT 16/01 A2991 RMK A01 T01550009  RH  037%=      5-min Rain = 0
KPD4 162347Z 19005KT 15/01 A2991 RMK A01 T01530009  RH  037%=      5-min Rain = 0
KPD4 162348Z 18005KT 15/01 A2991 RMK A01 T01530010  RH  038%=      5-min Rain = 0
KPD4 162349Z 20005KT 15/01 A2991 RMK A01 T01530009  RH  038%=      5-min Rain = 0
KPD4 162350Z 19005KT 15/01 A2991 RMK A01 T01510008  RH  038%=      5-min Rain = 0
KPD4 162351Z 19006KT 15/01 A2991 RMK A01 T01500009  RH  038%=      5-min Rain = 0
KPD4 162352Z 19006KT 15/01 A2991 RMK A01 T01510010  RH  038%=      5-min Rain = 0
KPD4 162353Z 20005KT 15/01 A2991 RMK A01 T01510010  RH  038%=      5-min Rain = 0
KPD4 162354Z 20005KT 15/01 A2991 RMK A01 T01510010  RH  038%=      5-min Rain = 0
KPD4 162355Z 19005KT 15/01 A2991 RMK A01 T01510010  RH  038%=      5-min Rain = 0
KPD4 162356Z 19005KT 15/01 A2991 RMK A01 T01500010  RH  039%=      5-min Rain = 0
KPD4 162357Z 19004KT 15/01 A2991 RMK A01 T01490010  RH  039%=      5-min Rain = 0
KPD4 162358Z 19004KT 15/01 A2992 RMK A01 T01490010  RH  039%=      5-min Rain = 0
KPD4 162359Z 21005KT 15/01 A2992 RMK A01 T01480010  RH  039%=      5-min Rain = 0
KPD4 170000Z 20004KT 15/01 A2992 RMK A01 T01490011  RH  039%=      5-min Rain = 0
KPD4 170001Z 20004KT 15/01 A2992 RMK A01 T01500010  RH  039%=      5-min Rain = 0
KPD4 170002Z 19004KT 15/01 A2992 RMK A01 T01490010  RH  039%=      5-min Rain = 0
KPD4 170003Z 20004KT 15/01 A2992 RMK A01 T01490010  RH  039%=      5-min Rain = 0
KPD4 170004Z 20004KT 15/01 A2992 RMK A01 T01490011  RH  039%=      5-min Rain = 0
KPD4 170005Z 20004KT 15/01 A2992 RMK A01 T01490010  RH  039%=      5-min Rain = 0
KPD4 170006Z 20005KT 15/01 A2992 RMK A01 T01480010  RH  039%=      5-min Rain = 0
KPD4 170007Z 20005KT 15/01 A2992 RMK A01 T01470009  RH  039%=      5-min Rain = 0
KPD4 170008Z 20005KT 15/01 A2992 RMK A01 T01450009  RH  039%=      5-min Rain = 0
KPD4 170009Z 21005KT 14/01 A2992 RMK A01 T01440009  RH  040%=      5-min Rain = 0
KPD4 170010Z 21007KT 14/01 A2992 RMK A01 T01440009  RH  040%=      5-min Rain = 0
KPD4 170011Z 20006KT 15/01 A2992 RMK A01 T01450010  RH  040%=      5-min Rain = 0
KPD4 170012Z 20005KT 15/01 A2992 RMK A01 T01460010  RH  039%=      5-min Rain = 0
KPD4 170013Z 21005KT 15/01 A2992 RMK A01 T01450009  RH  040%=      5-min Rain = 0
KPD4 170014Z 20004KT 14/01 A2992 RMK A01 T01430008  RH  040%=      5-min Rain = 0
KPD4 170015Z 19004KT 14/01 A2992 RMK A01 T01420009  RH  040%=      5-min Rain = 0
KPD4 170016Z 17007KT 14/01 A2992 RMK A01 T01430010  RH  040%=      5-min Rain = 0
KPD4 170017Z 20005KT 15/01 A2992 RMK A01 T01450010  RH  040%=      5-min Rain = 0
KPD4 170018Z 21004KT 15/01 A2992 RMK A01 T01460010  RH  039%=      5-min Rain = 0
KPD4 170019Z 21003KT 14/01 A2993 RMK A01 T01440008  RH  039%=      5-min Rain = 0
KPD4 170020Z 19004KT 14/01 A2993 RMK A01 T01430009  RH  040%=      5-min Rain = 0
KPD4 170021Z 18005KT 14/01 A2993 RMK A01 T01420008  RH  040%=      5-min Rain = 0
KPD4 170022Z 19005KT 14/01 A2993 RMK A01 T01410008  RH  040%=      5-min Rain = 0
KPD4 170023Z 19004KT 14/01 A2993 RMK A01 T01410008  RH  040%=      5-min Rain = 0
KPD4 170024Z 20005KT 14/01 A2993 RMK A01 T01420009  RH  040%=      5-min Rain = 0
KPD4 170025Z 19004KT 14/01 A2993 RMK A01 T01420009  RH  040%=      5-min Rain = 0
KPD4 170026Z 20006KT 14/01 A2993 RMK A01 T01420009  RH  040%=      5-min Rain = 0
KPD4 170027Z 20005KT 14/01 A2993 RMK A01 T01410009  RH  041%=      5-min Rain = 0
KPD4 170028Z 20005KT 14/01 A2993 RMK A01 T01400009  RH  041%=      5-min Rain = 0
KPD4 170029Z 20005KT 14/01 A2993 RMK A01 T01410010  RH  041%=      5-min Rain = 0
KPD4 170030Z 19006KT 14/01 A2993 RMK A01 T01400009  RH  041%=      5-min Rain = 0
KPD4 170031Z 20006KT 14/01 A2993 RMK A01 T01400009  RH  041%=      5-min Rain = 0
KPD4 170032Z 19005KT 14/01 A2993 RMK A01 T01400009  RH  041%=      5-min Rain = 0
KPD4 170033Z 19006KT 14/01 A2993 RMK A01 T01390009  RH  041%=      5-min Rain = 0
KPD4 170034Z 19005KT 14/01 A2993 RMK A01 T01400010  RH  041%=      5-min Rain = 0
KPD4 170035Z 19006KT 14/01 A2993 RMK A01 T01400009  RH  041%=      5-min Rain = 0
KPD4 170036Z 19006KT 14/01 A2993 RMK A01 T01400010  RH  041%=      5-min Rain = 0
KPD4 170037Z 19006KT 14/01 A2993 RMK A01 T01390010  RH  041%=      5-min Rain = 0
KPD4 170038Z 20006KT 14/01 A2993 RMK A01 T01400011  RH  041%=      5-min Rain = 0
KPD4 170039Z 21006KT 14/01 A2993 RMK A01 T01410011  RH  041%=      5-min Rain = 0
KPD4 170040Z 20005KT 14/01 A2993 RMK A01 T01420010  RH  041%=      5-min Rain = 0
KPD4 170041Z 20005KT 14/01 A2993 RMK A01 T01420010  RH  041%=      5-min Rain = 0
KPD4 170042Z 20004KT 14/01 A2993 RMK A01 T01410010  RH  041%=      5-min Rain = 0
KPD4 170043Z 20004KT 14/01 A2993 RMK A01 T01390009  RH  041%=      5-min Rain = 0
KPD4 170044Z 20004KT 14/01 A2993 RMK A01 T01380009  RH  041%=      5-min Rain = 0
KPD4 170045Z 19007KT 14/01 A2993 RMK A01 T01370008  RH  041%=      5-min Rain = 0
KPD4 170046Z 20006KT 14/01 A2993 RMK A01 T01360009  RH  042%=      5-min Rain = 0
KPD4 170047Z 21004KT 14/01 A2993 RMK A01 T01360009  RH  042%=      5-min Rain = 0
KPD4 170048Z 22004KT 14/01 A2993 RMK A01 T01350009  RH  042%=      5-min Rain = 0
KPD4 170049Z 22004KT 13/01 A2993 RMK A01 T01340008  RH  042%=      5-min Rain = 0
KPD4 170050Z 22004KT 13/01 A2993 RMK A01 T01320007  RH  042%=      5-min Rain = 0
KPD4 170051Z 24003KT 13/01 A2993 RMK A01 T01300006  RH  043%=      5-min Rain = 0
KPD4 170052Z 25004KT 13/00 A2994 RMK A01 T01270004  RH  043%=      5-min Rain = 0
KPD4 170053Z 25004KT 12/01 A2994 RMK A01 T01240005  RH  044%=      5-min Rain = 0
KPD4 170054Z 24004KT 12/01 A2994 RMK A01 T01240006  RH  045%=      5-min Rain = 0
KPD4 170055Z 24004KT 13/01 A2994 RMK A01 T01260008  RH  045%=      5-min Rain = 0
KPD4 170056Z 24004KT 13/01 A2994 RMK A01 T01270008  RH  044%=      5-min Rain = 0
KPD4 170057Z 24004KT 13/01 A2994 RMK A01 T01280008  RH  044%=      5-min Rain = 0
KPD4 170058Z 25005KT 13/01 A2994 RMK A01 T01280008  RH  044%=      5-min Rain = 0
KPD4 170059Z 25005KT 13/01 A2994 RMK A01 T01280008  RH  044%=      5-min Rain = 0
KPD4 170100Z 22005KT 13/01 A2994 RMK A01 T01280008  RH  044%=      5-min Rain = 0
KPD4 170101Z 22005KT 13/01 A2994 RMK A01 T01290008  RH  044%=      5-min Rain = 0
KPD4 170102Z 21004KT 13/01 A2994 RMK A01 T01290008  RH  044%=      5-min Rain = 0
KPD4 170103Z 22005KT 13/01 A2994 RMK A01 T01290008  RH  044%=      5-min Rain = 0
KPD4 170104Z 21004KT 13/01 A2994 RMK A01 T01290008  RH  044%=      5-min Rain = 0
KPD4 170105Z 20006KT 13/01 A2994 RMK A01 T01280008  RH  044%=      5-min Rain = 0
KPD4 170106Z 20007KT 13/01 A2994 RMK A01 T01280008  RH  044%=      5-min Rain = 0
KPD4 170107Z 20007KT 13/01 A2994 RMK A01 T01290009  RH  044%=      5-min Rain = 0
KPD4 170108Z 21006KT 13/01 A2995 RMK A01 T01290009  RH  044%=      5-min Rain = 0
KPD4 170109Z 21006KT 13/01 A2995 RMK A01 T01290009  RH  044%=      5-min Rain = 0
KPD4 170110Z 22005KT 13/01 A2995 RMK A01 T01290009  RH  044%=      5-min Rain = 0
KPD4 170111Z 29003KT 13/01 A2995 RMK A01 T01280008  RH  044%=      5-min Rain = 0
KPD4 170112Z 28004KT 12/00 A2995 RMK A01 T01230003  RH  044%=      5-min Rain = 0
KPD4 170113Z 28004KT 12/00 A2995 RMK A01 T01190003  RH  045%=      5-min Rain = 0
KPD4 170114Z 29004KT 12/01 A2995 RMK A01 T01180005  RH  046%=      5-min Rain = 0
KPD4 170115Z 29004KT 12/01 A2995 RMK A01 T01180005  RH  046%=      5-min Rain = 0
KPD4 170116Z 30004KT 12/01 A2995 RMK A01 T01200007  RH  046%=      5-min Rain = 0
KPD4 170117Z 28003KT 12/01 A2996 RMK A01 T01220007  RH  045%=      5-min Rain = 0
KPD4 170118Z 27003KT 12/01 A2996 RMK A01 T01220007  RH  045%=      5-min Rain = 0
KPD4 170119Z 29003KT 12/01 A2996 RMK A01 T01220007  RH  045%=      5-min Rain = 0
KPD4 170120Z 29004KT 12/01 A2996 RMK A01 T01230007  RH  045%=      5-min Rain = 0
KPD4 170121Z 28002KT 12/01 A2996 RMK A01 T01220006  RH  045%=      5-min Rain = 0
KPD4 170122Z 25002KT 12/01 A2996 RMK A01 T01220007  RH  045%=      5-min Rain = 0
KPD4 170123Z 23003KT 12/01 A2996 RMK A01 T01230008  RH  045%=      5-min Rain = 0
KPD4 170124Z 24002KT 12/01 A2996 RMK A01 T01240008  RH  045%=      5-min Rain = 0
KPD4 170125Z 27003KT 13/01 A2996 RMK A01 T01250008  RH  045%=      5-min Rain = 0
KPD4 170126Z 27003KT 13/01 A2995 RMK A01 T01250007  RH  044%=      5-min Rain = 0
KPD4 170127Z 28003KT 13/01 A2995 RMK A01 T01250007  RH  044%=      5-min Rain = 0
KPD4 170128Z 27003KT 12/00 A2995 RMK A01 T01220003  RH  044%=      5-min Rain = 0
KPD4 170129Z 25004KT 12/00 A2995 RMK A01 T01180003  RH  045%=      5-min Rain = 0
KPD4 170130Z 23003KT 12/00 A2995 RMK A01 T01170004  RH  046%=      5-min Rain = 0
KPD4 170131Z 24003KT 12/01 A2995 RMK A01 T01170005  RH  046%=      5-min Rain = 0
KPD4 170132Z 26005KT 12/00 A2995 RMK A01 T01170004  RH  046%=      5-min Rain = 0
KPD4 170133Z 24004KT 12/00 A2995 RMK A01 T01160003  RH  046%=      5-min Rain = 0
KPD4 170134Z 25003KT 12/01 A2995 RMK A01 T01150005  RH  047%=      5-min Rain = 0
KPD4 170135Z 26004KT 12/01 A2995 RMK A01 T01170007  RH  047%=      5-min Rain = 0
KPD4 170136Z 26005KT 12/01 A2996 RMK A01 T01190007  RH  046%=      5-min Rain = 0
KPD4 170137Z 25005KT 12/01 A2996 RMK A01 T01200007  RH  046%=      5-min Rain = 0
KPD4 170138Z 24006KT 12/01 A2996 RMK A01 T01200006  RH  045%=      5-min Rain = 0
KPD4 170139Z 24005KT 12/01 A2996 RMK A01 T01200006  RH  046%=      5-min Rain = 0
KPD4 170140Z 23005KT 12/01 A2996 RMK A01 T01190006  RH  046%=      5-min Rain = 0
KPD4 170141Z 24005KT 12/01 A2996 RMK A01 T01190007  RH  046%=      5-min Rain = 0
KPD4 170142Z 24005KT 12/01 A2996 RMK A01 T01200007  RH  046%=      5-min Rain = 0
KPD4 170143Z 25005KT 12/01 A2996 RMK A01 T01200007  RH  046%=      5-min Rain = 0
KPD4 170144Z 24005KT 12/01 A2996 RMK A01 T01190006  RH  046%=      5-min Rain = 0
KPD4 170145Z 22005KT 12/01 A2996 RMK A01 T01180006  RH  046%=      5-min Rain = 0
KPD4 170146Z 22005KT 12/01 A2996 RMK A01 T01180007  RH  046%=      5-min Rain = 0
KPD4 170147Z 23004KT 12/01 A2996 RMK A01 T01190008  RH  046%=      5-min Rain = 0
KPD4 170148Z 24004KT 12/01 A2996 RMK A01 T01200007  RH  046%=      5-min Rain = 0
KPD4 170149Z 27004KT 12/01 A2996 RMK A01 T01200007  RH  046%=      5-min Rain = 0
KPD4 170150Z 26004KT 12/01 A2996 RMK A01 T01180006  RH  046%=      5-min Rain = 0
KPD4 170151Z 25004KT 12/01 A2996 RMK A01 T01170007  RH  047%=      5-min Rain = 0
KPD4 170152Z 23004KT 12/01 A2996 RMK A01 T01190008  RH  047%=      5-min Rain = 0
KPD4 170153Z 22004KT 12/01 A2996 RMK A01 T01210008  RH  046%=      5-min Rain = 0
KPD4 170154Z 23004KT 12/01 A2996 RMK A01 T01210008  RH  046%=      5-min Rain = 0
KPD4 170155Z 22004KT 12/01 A2996 RMK A01 T01210008  RH  046%=      5-min Rain = 0
KPD4 170156Z 22004KT 12/01 A2996 RMK A01 T01200007  RH  046%=      5-min Rain = 0
KPD4 170157Z 23003KT 12/01 A2996 RMK A01 T01200008  RH  046%=      5-min Rain = 0
KPD4 170158Z 22004KT 12/01 A2996 RMK A01 T01190008  RH  046%=      5-min Rain = 0
KPD4 170159Z 22003KT 12/01 A2996 RMK A01 T01180007  RH  046%=      5-min Rain = 0
KPD4 170200Z 22003KT 12/01 A2996 RMK A01 T01170006  RH  047%=      5-min Rain = 0
KPD4 170201Z 22004KT 12/01 A2996 RMK A01 T01170007  RH  047%=      5-min Rain = 0
KPD4 170202Z 22003KT 12/01 A2996 RMK A01 T01160007  RH  047%=      5-min Rain = 0
KPD4 170203Z 22003KT 12/01 A2996 RMK A01 T01160007  RH  047%=      5-min Rain = 0
KPD4 170204Z 22004KT 12/01 A2996 RMK A01 T01150007  RH  047%=      5-min Rain = 0
KPD4 170205Z 22004KT 12/01 A2996 RMK A01 T01150007  RH  048%=      5-min Rain = 0
KPD4 170206Z 22004KT 12/01 A2996 RMK A01 T01160008  RH  047%=      5-min Rain = 0
KPD4 170207Z 22004KT 12/01 A2996 RMK A01 T01160007  RH  047%=      5-min Rain = 0
KPD4 170208Z 22004KT 12/01 A2996 RMK A01 T01160008  RH  047%=      5-min Rain = 0
KPD4 170209Z 22004KT 12/01 A2996 RMK A01 T01170008  RH  047%=      5-min Rain = 0
KPD4 170210Z 22004KT 12/01 A2996 RMK A01 T01180009  RH  047%=      5-min Rain = 0
KPD4 170211Z 21004KT 12/01 A2996 RMK A01 T01180009  RH  047%=      5-min Rain = 0
KPD4 170212Z 21004KT 12/01 A2996 RMK A01 T01190009  RH  047%=      5-min Rain = 0
KPD4 170213Z 20004KT 12/01 A2996 RMK A01 T01200009  RH  047%=      5-min Rain = 0
KPD4 170214Z 20004KT 12/01 A2996 RMK A01 T01210009  RH  046%=      5-min Rain = 0
KPD4 170215Z 20004KT 12/01 A2996 RMK A01 T01210009  RH  046%=      5-min Rain = 0
KPD4 170216Z 20003KT 12/01 A2996 RMK A01 T01210009  RH  046%=      5-min Rain = 0
KPD4 170217Z 21003KT 12/01 A2996 RMK A01 T01220009  RH  046%=      5-min Rain = 0
KPD4 170218Z 21003KT 12/01 A2996 RMK A01 T01220009  RH  046%=      5-min Rain = 0
KPD4 170219Z 20004KT 12/01 A2996 RMK A01 T01220009  RH  046%=      5-min Rain = 0
KPD4 170220Z 20004KT 12/01 A2996 RMK A01 T01210008  RH  046%=      5-min Rain = 0
KPD4 170221Z 20004KT 12/01 A2996 RMK A01 T01210008  RH  046%=      5-min Rain = 0
KPD4 170222Z 21004KT 12/01 A2996 RMK A01 T01190008  RH  046%=      5-min Rain = 0
KPD4 170223Z 21004KT 12/01 A2996 RMK A01 T01190008  RH  047%=      5-min Rain = 0
KPD4 170224Z 21004KT 12/01 A2997 RMK A01 T01200009  RH  047%=      5-min Rain = 0
KPD4 170225Z 21004KT 12/01 A2997 RMK A01 T01200009  RH  046%=      5-min Rain = 0
KPD4 170226Z 21004KT 12/01 A2997 RMK A01 T01220009  RH  046%=      5-min Rain = 0
KPD4 170227Z 21004KT 12/01 A2997 RMK A01 T01220009  RH  046%=      5-min Rain = 0
KPD4 170228Z 21004KT 12/01 A2997 RMK A01 T01210008  RH  046%=      5-min Rain = 0
KPD4 170229Z 21005KT 12/01 A2997 RMK A01 T01200008  RH  046%=      5-min Rain = 0
KPD4 170230Z 21004KT 12/01 A2997 RMK A01 T01180008  RH  047%=      5-min Rain = 0
KPD4 170231Z 21004KT 12/01 A2997 RMK A01 T01180008  RH  047%=      5-min Rain = 0
KPD4 170232Z 21004KT 12/01 A2997 RMK A01 T01180008  RH  047%=      5-min Rain = 0
KPD4 170233Z 21004KT 12/01 A2997 RMK A01 T01170008  RH  047%=      5-min Rain = 0
KPD4 170234Z 22004KT 12/01 A2997 RMK A01 T01170008  RH  047%=      5-min Rain = 0
KPD4 170235Z 22004KT 12/01 A2997 RMK A01 T01160008  RH  047%=      5-min Rain = 0
KPD4 170236Z 22003KT 12/01 A2997 RMK A01 T01160008  RH  047%=      5-min Rain = 0
KPD4 170237Z 22003KT 12/01 A2997 RMK A01 T01150008  RH  048%=      5-min Rain = 0
KPD4 170238Z 22003KT 12/01 A2997 RMK A01 T01150008  RH  048%=      5-min Rain = 0
KPD4 170239Z 22003KT 12/01 A2997 RMK A01 T01160008  RH  048%=      5-min Rain = 0
KPD4 170240Z 22003KT 12/01 A2997 RMK A01 T01150008  RH  048%=      5-min Rain = 0
KPD4 170241Z 22003KT 12/01 A2997 RMK A01 T01150008  RH  047%=      5-min Rain = 0
KPD4 170242Z 22004KT 12/01 A2997 RMK A01 T01150008  RH  047%=      5-min Rain = 0
KPD4 170243Z 23004KT 12/01 A2997 RMK A01 T01150008  RH  048%=      5-min Rain = 0
KPD4 170244Z 24004KT 12/01 A2997 RMK A01 T01160008  RH  047%=      5-min Rain = 0
KPD4 170245Z 25004KT 12/01 A2998 RMK A01 T01160008  RH  047%=      5-min Rain = 0
KPD4 170246Z 25004KT 12/01 A2998 RMK A01 T01150007  RH  047%=      5-min Rain = 0
KPD4 170247Z 26004KT 11/01 A2998 RMK A01 T01130007  RH  048%=      5-min Rain = 0
KPD4 170248Z 27005KT 11/01 A2998 RMK A01 T01110006  RH  048%=      5-min Rain = 0
KPD4 170249Z 28006KT 11/01 A2998 RMK A01 T01080005  RH  049%=      5-min Rain = 0
KPD4 170250Z 30008KT 10/01 A2998 RMK A01 T01030005  RH  050%=      5-min Rain = 0
KPD4 170251Z 28006KT 10/00 A2998 RMK A01 T00990004  RH  051%=      5-min Rain = 0
KPD4 170252Z 27006KT 10/00 A2998 RMK A01 T00970004  RH  052%=      5-min Rain = 0
KPD4 170253Z 26006KT 10/01 A2998 RMK A01 T00970005  RH  053%=      5-min Rain = 0
KPD4 170254Z 27006KT 10/01 A2998 RMK A01 T00970005  RH  053%=      5-min Rain = 0
KPD4 170255Z 27006KT 10/01 A2998 RMK A01 T00970006  RH  053%=      5-min Rain = 0
KPD4 170256Z 28006KT 10/01 A2998 RMK A01 T00970005  RH  053%=      5-min Rain = 0
KPD4 170257Z 28006KT 10/01 A2998 RMK A01 T00960005  RH  053%=      5-min Rain = 0
KPD4 170258Z 28005KT 10/00 A2998 RMK A01 T00950004  RH  053%=      5-min Rain = 0
KPD4 170259Z 29006KT 10/00 A2998 RMK A01 T00950004  RH  053%=      5-min Rain = 0
KPD4 170300Z 29006KT 09/00 A2998 RMK A01 T00940004  RH  053%=      5-min Rain = 0
KPD4 170301Z 28005KT 09/00 A2997 RMK A01 T00930003  RH  053%=      5-min Rain = 0
KPD4 170302Z 28005KT 09/00 A2997 RMK A01 T00920003  RH  054%=      5-min Rain = 0
KPD4 170303Z 27005KT 09/00 A2997 RMK A01 T00910002  RH  054%=      5-min Rain = 0
KPD4 170304Z 27005KT 09/00 A2997 RMK A01 T00900003  RH  054%=      5-min Rain = 0
KPD4 170305Z 28005KT 09/00 A2997 RMK A01 T00910003  RH  054%=      5-min Rain = 0
KPD4 170306Z 27004KT 09/00 A2998 RMK A01 T00920004  RH  054%=      5-min Rain = 0
KPD4 170307Z 28004KT 10/01 A2998 RMK A01 T00950006  RH  053%=      5-min Rain = 0
KPD4 170308Z 28004KT 10/00 A2998 RMK A01 T00970004  RH  053%=      5-min Rain = 0
KPD4 170309Z 27005KT 10/00 A2998 RMK A01 T00960004  RH  052%=      5-min Rain = 0
KPD4 170310Z 27004KT 10/00 A2998 RMK A01 T00950003  RH  053%=      5-min Rain = 0
KPD4 170311Z 28004KT 09/00 A2998 RMK A01 T00940003  RH  053%=      5-min Rain = 0
KPD4 170312Z 27004KT 09/00 A2998 RMK A01 T00940003  RH  053%=      5-min Rain = 0
KPD4 170313Z 26005KT 09/00 A2998 RMK A01 T00940003  RH  053%=      5-min Rain = 0
KPD4 170314Z 26005KT 10/00 A2998 RMK A01 T00960004  RH  053%=      5-min Rain = 0
KPD4 170315Z 26005KT 10/00 A2998 RMK A01 T00980004  RH  052%=      5-min Rain = 0
KPD4 170316Z 27004KT 10/01 A2998 RMK A01 T00990005  RH  052%=      5-min Rain = 0
KPD4 170317Z 28004KT 10/00 A2998 RMK A01 T00990004  RH  052%=      5-min Rain = 0
KPD4 170318Z 29005KT 10/00 A2998 RMK A01 T00990004  RH  051%=      5-min Rain = 0
KPD4 170319Z 30004KT 10/00 A2998 RMK A01 T00990003  RH  051%=      5-min Rain = 0
KPD4 170320Z 30005KT 10/00 A2998 RMK A01 T00980003  RH  052%=      5-min Rain = 0
KPD4 170321Z 30006KT 10/00 A2998 RMK A01 T00980003  RH  051%=      5-min Rain = 0
KPD4 170322Z 31007KT 10/00 A2998 RMK A01 T00970002  RH  052%=      5-min Rain = 0
KPD4 170323Z 31007KT 10/00 A2998 RMK A01 T00950002  RH  052%=      5-min Rain = 0
KPD4 170324Z 31008KT 09/00 A2998 RMK A01 T00930002  RH  053%=      5-min Rain = 0
KPD4 170325Z 31008KT 09/00 A2998 RMK A01 T00930002  RH  053%=      5-min Rain = 0
KPD4 170326Z 32010KT 09/00 A2998 RMK A01 T00920003  RH  053%=      5-min Rain = 0
KPD4 170327Z 32010KT 09/00 A2998 RMK A01 T00910002  RH  054%=      5-min Rain = 0
KPD4 170328Z 32010KT 09/00 A2998 RMK A01 T00900002  RH  054%=      5-min Rain = 0
KPD4 170329Z 32010KT 09/00 A2998 RMK A01 T00890003  RH  055%=      5-min Rain = 0
KPD4 170330Z 32011KT 09/00 A2998 RMK A01 T00900004  RH  055%=      5-min Rain = 0
KPD4 170331Z 33012KT 09/01 A2998 RMK A01 T00910005  RH  055%=      5-min Rain = 0
KPD4 170332Z 33012KT 09/00 A2998 RMK A01 T00930004  RH  054%=      5-min Rain = 0
KPD4 170333Z 33012KT 09/00 A2998 RMK A01 T00930003  RH  053%=      5-min Rain = 0
KPD4 170334Z 33011KT 09/00 A2998 RMK A01 T00940000  RH  052%=      5-min Rain = 0
KPD4 170335Z 33011KT 09/M00 A2998 RMK A01 T00941001  RH  051%=      5-min Rain = 0
KPD4 170336Z 33011KT 10/M00 A2998 RMK A01 T00951002  RH  051%=      5-min Rain = 0
KPD4 170337Z 33011KT 10/M00 A2998 RMK A01 T00951003  RH  050%=      5-min Rain = 0
KPD4 170338Z 33011KT 10/M00 A2998 RMK A01 T00961003  RH  050%=      5-min Rain = 0
KPD4 170339Z 33010KT 10/M00 A2998 RMK A01 T00971003  RH  050%=      5-min Rain = 0
KPD4 170340Z 34010KT 10/M00 A2998 RMK A01 T00971004  RH  049%=      5-min Rain = 0
KPD4 170341Z 34010KT 10/M00 A2998 RMK A01 T00971004  RH  049%=      5-min Rain = 0
KPD4 170342Z 34009KT 10/M01 A2998 RMK A01 T00971007  RH  048%=      5-min Rain = 0
KPD4 170343Z 34009KT 10/M01 A2998 RMK A01 T00981008  RH  048%=      5-min Rain = 0
KPD4 170344Z 34009KT 10/M01 A2998 RMK A01 T00991009  RH  047%=      5-min Rain = 0
KPD4 170345Z 33009KT 10/M01 A2998 RMK A01 T01011011  RH  046%=      5-min Rain = 0
KPD4 170346Z 33010KT 10/M01 A2998 RMK A01 T01021011  RH  045%=      5-min Rain = 0
KPD4 170347Z 33010KT 10/M01 A2998 RMK A01 T01031011  RH  045%=      5-min Rain = 0
KPD4 170348Z 33011KT 10/M01 A2998 RMK A01 T01021011  RH  045%=      5-min Rain = 0
KPD4 170349Z 33011KT 10/M01 A2998 RMK A01 T01011011  RH  045%=      5-min Rain = 0
KPD4 170350Z 33011KT 10/M01 A2998 RMK A01 T01001012  RH  045%=      5-min Rain = 0
KPD4 170351Z 33011KT 10/M01 A2998 RMK A01 T01001013  RH  045%=      5-min Rain = 0
KPD4 170352Z 33010KT 10/M01 A2998 RMK A01 T01001014  RH  045%=      5-min Rain = 0
KPD4 170353Z 33010KT 10/M01 A2999 RMK A01 T01001014  RH  045%=      5-min Rain = 0
KPD4 170354Z 33010KT 10/M02 A2999 RMK A01 T00991015  RH  045%=      5-min Rain = 0
KPD4 170355Z 33010KT 10/M02 A2999 RMK A01 T00971015  RH  046%=      5-min Rain = 0
KPD4 170356Z 33010KT 10/M02 A2999 RMK A01 T00961015  RH  046%=      5-min Rain = 0
KPD4 170357Z 33010KT 10/M02 A2999 RMK A01 T00951016  RH  046%=      5-min Rain = 0
KPD4 170358Z 33010KT 10/M02 A2999 RMK A01 T00951016  RH  046%=      5-min Rain = 0
KPD4 170359Z 33011KT 09/M02 A2999 RMK A01 T00941017  RH  046%=      5-min Rain = 0
KPD4 170400Z 33011KT 09/M02 A2999 RMK A01 T00941018  RH  045%=      5-min Rain = 0
KPD4 170401Z 33011KT 09/M02 A2999 RMK A01 T00941018  RH  045%=      5-min Rain = 0
KPD4 170402Z 33012KT 09/M02 A2999 RMK A01 T00941018  RH  045%=      5-min Rain = 0
KPD4 170403Z 33012KT 09/M02 A2999 RMK A01 T00941019  RH  045%=      5-min Rain = 0
KPD4 170404Z 33012KT 10/M02 A2999 RMK A01 T00951020  RH  045%=      5-min Rain = 0
KPD4 170405Z 33011KT 10/M02 A30 RMK A01 T00961020  RH  044%=      5-min Rain = 0
KPD4 170406Z 33012KT 10/M02 A30 RMK A01 T00961020  RH  044%=      5-min Rain = 0
KPD4 170407Z 34012KT 10/M02 A30 RMK A01 T00971021  RH  044%=      5-min Rain = 0
KPD4 170408Z 34012KT 10/M02 A30 RMK A01 T00981021  RH  043%=      5-min Rain = 0
KPD4 170409Z 34012KT 10/M02 A30 RMK A01 T00991022  RH  043%=      5-min Rain = 0
KPD4 170410Z 34013KT 10/M02 A30 RMK A01 T01001022  RH  042%=      5-min Rain = 0
KPD4 170411Z 34012KT 10/M02 A30 RMK A01 T01011023  RH  042%=      5-min Rain = 0
KPD4 170412Z 34012KT 10/M02 A30 RMK A01 T01021023  RH  041%=      5-min Rain = 0
KPD4 170413Z 34013KT 10/M02 A30 RMK A01 T01031023  RH  041%=      5-min Rain = 0
KPD4 170414Z 34013KT 10/M02 A30 RMK A01 T01031023  RH  041%=      5-min Rain = 0
KPD4 170415Z 34013KT 10/M02 A30 RMK A01 T01041023  RH  041%=      5-min Rain = 0
KPD4 170416Z 34013KT 11/M02 A30 RMK A01 T01051023  RH  041%=      5-min Rain = 0
KPD4 170417Z 34013KT 11/M02 A30 RMK A01 T01061024  RH  040%=      5-min Rain = 0
KPD4 170418Z 34014KT 11/M02 A30 RMK A01 T01071024  RH  040%=      5-min Rain = 0
KPD4 170419Z 34013KT 11/M03 A30 RMK A01 T01071025  RH  040%=      5-min Rain = 0
KPD4 170420Z 34013KT 11/M03 A30 RMK A01 T01081025  RH  039%=      5-min Rain = 0
KPD4 170421Z 34013KT 11/M03 A30 RMK A01 T01081025  RH  039%=      5-min Rain = 0
KPD4 170422Z 34013KT 11/M03 A30 RMK A01 T01081025  RH  039%=      5-min Rain = 0
KPD4 170423Z 34011KT 11/M03 A30 RMK A01 T01081025  RH  039%=      5-min Rain = 0
KPD4 170424Z 34012KT 11/M03 A30 RMK A01 T01071025  RH  039%=      5-min Rain = 0
KPD4 170425Z 34013KT 11/M03 A30 RMK A01 T01071026  RH  039%=      5-min Rain = 0
KPD4 170426Z 34013KT 11/M03 A30 RMK A01 T01071026  RH  039%=      5-min Rain = 0
KPD4 170427Z 34012KT 11/M03 A30 RMK A01 T01071026  RH  039%=      5-min Rain = 0
KPD4 170428Z 34012KT 11/M03 A30 RMK A01 T01071026  RH  039%=      5-min Rain = 0
KPD4 170429Z 34013KT 11/M03 A30 RMK A01 T01061026  RH  039%=      5-min Rain = 0
KPD4 170430Z 34012KT 11/M03 A30 RMK A01 T01061026  RH  040%=      5-min Rain = 0
KPD4 170431Z 34013KT 11/M03 A30 RMK A01 T01061026  RH  040%=      5-min Rain = 0
KPD4 170432Z 34012KT 11/M03 A30 RMK A01 T01061026  RH  040%=      5-min Rain = 0
KPD4 170433Z 34013KT 11/M03 A30 RMK A01 T01051026  RH  040%=      5-min Rain = 0
KPD4 170434Z 34012KT 11/M03 A30 RMK A01 T01051026  RH  040%=      5-min Rain = 0
KPD4 170435Z 34012KT 11/M03 A30 RMK A01 T01051026  RH  040%=      5-min Rain = 0
KPD4 170436Z 34012KT 11/M03 A30 RMK A01 T01051026  RH  040%=      5-min Rain = 0
KPD4 170437Z 34013KT 11/M03 A30 RMK A01 T01051026  RH  040%=      5-min Rain = 0
KPD4 170438Z 34012KT 11/M03 A30 RMK A01 T01051026  RH  040%=      5-min Rain = 0
KPD4 170439Z 34012KT 10/M03 A30 RMK A01 T01041026  RH  040%=      5-min Rain = 0
KPD4 170440Z 34012KT 10/M03 A30 RMK A01 T01041026  RH  040%=      5-min Rain = 0
KPD4 170441Z 34012KT 10/M03 A30 RMK A01 T01041026  RH  040%=      5-min Rain = 0
KPD4 170442Z 34012KT 10/M03 A30 RMK A01 T01041026  RH  040%=      5-min Rain = 0
KPD4 170443Z 34012KT 10/M03 A30 RMK A01 T01041026  RH  040%=      5-min Rain = 0
KPD4 170444Z 34013KT 10/M03 A30 RMK A01 T01041026  RH  040%=      5-min Rain = 0
KPD4 170445Z 34013KT 10/M03 A30 RMK A01 T01041026  RH  040%=      5-min Rain = 0
KPD4 170446Z 34012KT 11/M03 A30 RMK A01 T01051026  RH  040%=      5-min Rain = 0
KPD4 170447Z 34013KT 10/M03 A30 RMK A01 T01041026  RH  040%=      5-min Rain = 0
KPD4 170448Z 34013KT 11/M03 A30 RMK A01 T01051026  RH  040%=      5-min Rain = 0
KPD4 170449Z 34012KT 11/M03 A3001 RMK A01 T01051026  RH  040%=      5-min Rain = 0
KPD4 170450Z 34012KT 11/M03 A3001 RMK A01 T01051025  RH  040%=      5-min Rain = 0
KPD4 170451Z 34012KT 10/M03 A3001 RMK A01 T01041026  RH  040%=      5-min Rain = 0
KPD4 170452Z 34013KT 10/M03 A3001 RMK A01 T01041026  RH  040%=      5-min Rain = 0
KPD4 170453Z 34013KT 10/M03 A3001 RMK A01 T01041026  RH  040%=      5-min Rain = 0
KPD4 170454Z 34014KT 10/M03 A3001 RMK A01 T01041026  RH  040%=      5-min Rain = 0
KPD4 170455Z 34014KT 10/M03 A3001 RMK A01 T01041026  RH  040%=      5-min Rain = 0
KPD4 170456Z 34014KT 10/M03 A3001 RMK A01 T01041025  RH  040%=      5-min Rain = 0
KPD4 170457Z 34014KT 11/M03 A3001 RMK A01 T01051025  RH  040%=      5-min Rain = 0
KPD4 170458Z 34013KT 11/M03 A3001 RMK A01 T01051025  RH  040%=      5-min Rain = 0
KPD4 170459Z 35014KT 11/M03 A3001 RMK A01 T01051025  RH  040%=      5-min Rain = 0
KPD4 170500Z 34014KT 11/M03 A3001 RMK A01 T01051025  RH  040%=      5-min Rain = 0
KPD4 170501Z 34015KT 11/M03 A3001 RMK A01 T01051025  RH  040%=      5-min Rain = 0
KPD4 170502Z 34014KT 11/M03 A3001 RMK A01 T01061025  RH  040%=      5-min Rain = 0
KPD4 170503Z 34014KT 11/M03 A3001 RMK A01 T01061025  RH  040%=      5-min Rain = 0
KPD4 170504Z 34014KT 11/M03 A3001 RMK A01 T01061025  RH  040%=      5-min Rain = 0
KPD4 170505Z 34014KT 11/M03 A3001 RMK A01 T01061025  RH  040%=      5-min Rain = 0
KPD4 170506Z 34015KT 11/M03 A3001 RMK A01 T01051025  RH  040%=      5-min Rain = 0
KPD4 170507Z 34017KT 11/M03 A3001 RMK A01 T01051026  RH  040%=      5-min Rain = 0
KPD4 170508Z 34016KT 11/M03 A3001 RMK A01 T01051026  RH  040%=      5-min Rain = 0
KPD4 170509Z 34015KT 11/M03 A3002 RMK A01 T01051026  RH  040%=      5-min Rain = 0
KPD4 170510Z 34016KT 11/M03 A3002 RMK A01 T01051026  RH  040%=      5-min Rain = 0
KPD4 170511Z 34015KT 11/M03 A3002 RMK A01 T01051026  RH  040%=      5-min Rain = 0
KPD4 170512Z 34015KT 10/M03 A3002 RMK A01 T01041027  RH  040%=      5-min Rain = 0
KPD4 170513Z 34015KT 10/M03 A3002 RMK A01 T01041026  RH  040%=      5-min Rain = 0
KPD4 170514Z 34015KT 10/M03 A3002 RMK A01 T01031026  RH  040%=      5-min Rain = 0
KPD4 170515Z 34016KT 10/M03 A3002 RMK A01 T01031026  RH  040%=      5-min Rain = 0
KPD4 170516Z 34016KT 10/M03 A3002 RMK A01 T01031026  RH  040%=      5-min Rain = 0
KPD4 170517Z 34015KT 10/M03 A3002 RMK A01 T01031027  RH  040%=      5-min Rain = 0
KPD4 170518Z 34014KT 10/M03 A3002 RMK A01 T01031026  RH  040%=      5-min Rain = 0
KPD4 170519Z 34015KT 10/M03 A3002 RMK A01 T01031026  RH  040%=      5-min Rain = 0
KPD4 170520Z 34016KT 10/M03 A3002 RMK A01 T01031026  RH  040%=      5-min Rain = 0
KPD4 170521Z 34016KT 10/M03 A3002 RMK A01 T01031027  RH  040%=      5-min Rain = 0
KPD4 170522Z 34015KT 10/M03 A3002 RMK A01 T01031027  RH  040%=      5-min Rain = 0
KPD4 170523Z 34015KT 10/M03 A3002 RMK A01 T01031027  RH  040%=      5-min Rain = 0
KPD4 170524Z 34015KT 10/M03 A3002 RMK A01 T01031027  RH  040%=      5-min Rain = 0
KPD4 170525Z 34014KT 10/M03 A3002 RMK A01 T01031027  RH  040%=      5-min Rain = 0
KPD4 170526Z 34015KT 10/M03 A3002 RMK A01 T01031027  RH  040%=      5-min Rain = 0
KPD4 170527Z 35014G19KT 10/M03 A3002 RMK A01 T01041027  RH  040%=      5-min Rain = 0
KPD4 170528Z 34016KT 11/M03 A3002 RMK A01 T01051027  RH  040%=      5-min Rain = 0
KPD4 170529Z 34015KT 11/M03 A3002 RMK A01 T01051026  RH  040%=      5-min Rain = 0
KPD4 170530Z 34015KT 11/M03 A3002 RMK A01 T01051027  RH  039%=      5-min Rain = 0
KPD4 170531Z 34014KT 11/M03 A3003 RMK A01 T01051027  RH  039%=      5-min Rain = 0
KPD4 170532Z 34016KT 11/M03 A3003 RMK A01 T01051027  RH  040%=      5-min Rain = 0
KPD4 170533Z 34016KT 11/M03 A3003 RMK A01 T01051027  RH  040%=      5-min Rain = 0
KPD4 170534Z 34015KT 11/M03 A3003 RMK A01 T01051027  RH  040%=      5-min Rain = 0
KPD4 170535Z 34017G22KT 10/M03 A3003 RMK A01 T01041027  RH  040%=      5-min Rain = 0
KPD4 170536Z 34018KT 10/M03 A3003 RMK A01 T01041028  RH  040%=      5-min Rain = 0
KPD4 170537Z 34020KT 11/M03 A3003 RMK A01 T01051028  RH  039%=      5-min Rain = 0
KPD4 170538Z 34019KT 11/M03 A3003 RMK A01 T01051028  RH  039%=      5-min Rain = 0
KPD4 170539Z 34018KT 11/M03 A3004 RMK A01 T01061027  RH  039%=      5-min Rain = 0
KPD4 170540Z 34020KT 11/M03 A3004 RMK A01 T01061027  RH  039%=      5-min Rain = 0
KPD4 170541Z 34020KT 11/M03 A3004 RMK A01 T01061027  RH  039%=      5-min Rain = 0
KPD4 170542Z 34021KT 11/M03 A3004 RMK A01 T01061028  RH  039%=      5-min Rain = 0
KPD4 170543Z 34020KT 11/M03 A3004 RMK A01 T01071028  RH  039%=      5-min Rain = 0
KPD4 170544Z 34019KT 11/M03 A3004 RMK A01 T01071028  RH  039%=      5-min Rain = 0
KPD4 170545Z 34020G26KT 11/M03 A3004 RMK A01 T01071027  RH  039%=      5-min Rain = 0
KPD4 170546Z 34020KT 11/M03 A3004 RMK A01 T01071028  RH  039%=      5-min Rain = 0
KPD4 170547Z 34020KT 11/M03 A3004 RMK A01 T01071028  RH  039%=      5-min Rain = 0
KPD4 170548Z 34019KT 11/M03 A3004 RMK A01 T01071028  RH  039%=      5-min Rain = 0
KPD4 170549Z 34021KT 11/M03 A3004 RMK A01 T01071027  RH  039%=      5-min Rain = 0
KPD4 170550Z 34020KT 11/M03 A3004 RMK A01 T01061028  RH  039%=      5-min Rain = 0
KPD4 170551Z 34021KT 11/M03 A3004 RMK A01 T01061028  RH  039%=      5-min Rain = 0
KPD4 170552Z 35019G24KT 11/M03 A3004 RMK A01 T01061028  RH  039%=      5-min Rain = 0
KPD4 170553Z 34021KT 11/M03 A3004 RMK A01 T01061027  RH  039%=      5-min Rain = 0
KPD4 170554Z 35020KT 11/M03 A3004 RMK A01 T01071027  RH  039%=      5-min Rain = 0
KPD4 170555Z 35019KT 11/M03 A3004 RMK A01 T01071027  RH  039%=      5-min Rain = 0
KPD4 170556Z 35020KT 11/M03 A3005 RMK A01 T01061027  RH  039%=      5-min Rain = 0
KPD4 170557Z 35021G27KT 11/M03 A3005 RMK A01 T01061027  RH  039%=      5-min Rain = 0
KPD4 170558Z 35018KT 11/M03 A3005 RMK A01 T01071027  RH  039%=      5-min Rain = 0
KPD4 170559Z 35020KT 11/M03 A3005 RMK A01 T01071027  RH  039%=      5-min Rain = 0

Page generated in 0.1209 seconds.